| time (UTC) | temp F | wind direction | speed knots | gust knots | rain 1hr in | rain 24hr in | rain mn in | humidity % | barometer mb |
| 20260503001739 | 52 | 45 | 0.0 | 0.0 | 0.00 | 0.00 | 0.00 | 92 | 1058.2 |
| 20260503001633 | 52 | 45 | 0.0 | 0.0 | 0.00 | 0.00 | 0.00 | 92 | 1058.2 |
| 20260503001519 | 52 | 45 | 0.0 | 0.0 | 0.00 | 0.00 | 0.00 | 92 | 1058.2 |
| 20260503001358 | 52 | 45 | 0.0 | 0.0 | 0.00 | 0.00 | 0.00 | 92 | 1058.2 |
| 20260503001245 | 52 | 45 | 0.0 | 0.0 | 0.00 | 0.00 | 0.00 | 92 | 1058.2 |
| 20260503001132 | 52 | 45 | 0.0 | 0.0 | 0.00 | 0.00 | 0.00 | 92 | 1058.2 |
| 20260503001011 | 52 | 45 | 0.0 | 0.0 | 0.00 | 0.00 | 0.00 | 92 | 1058.2 |
| 20260503000906 | 52 | 45 | 0.0 | 0.0 | 0.00 | 0.00 | 0.00 | 92 | 1058.2 |
| 20260503000752 | 52 | 45 | 0.0 | 0.0 | 0.00 | 0.00 | 0.00 | 92 | 1058.3 |
| 20260503000631 | 52 | 67 | 0.0 | 0.0 | 0.00 | 0.00 | 0.00 | 92 | 1058.4 |
| 20260503000519 | 52 | 112 | 0.0 | 0.0 | 0.00 | 0.00 | 0.00 | 92 | 1058.4 |
| 20260503000416 | 52 | 135 | 0.0 | 0.0 | 0.00 | 0.00 | 0.00 | 92 | 1058.4 |
| 20260503000308 | 52 | 135 | 0.0 | 0.0 | 0.00 | 0.00 | 0.00 | 92 | 1058.5 |
| 20260503000155 | 52 | 135 | 0.0 | 0.0 | 0.00 | 0.00 | 0.00 | 92 | 1058.6 |
| 20260503000033 | 52 | 135 | 0.0 | 0.0 | 0.00 | 0.00 | 0.00 | 92 | 1058.6 |
| 20260502235914 | 52 | 135 | 0.0 | 0.0 | 0.00 | 0.00 | 0.00 | 92 | 1058.6 |
| 20260502235808 | 52 | 135 | 0.0 | 0.0 | 0.00 | 0.00 | 0.00 | 92 | 1058.7 |
| 20260502235638 | 52 | 135 | 0.0 | 0.0 | 0.00 | 0.00 | 0.00 | 92 | 1058.9 |
| 20260502235524 | 52 | 135 | 0.0 | 0.0 | 0.00 | 0.00 | 0.00 | 92 | 1058.9 |
| 20260502235410 | 52 | 135 | 0.0 | 0.0 | 0.00 | 0.00 | 0.00 | 92 | 1058.9 |
| 20260502235250 | 52 | 135 | 0.0 | 0.0 | 0.00 | 0.00 | 0.00 | 92 | 1058.9 |
| 20260502235147 | 52 | 135 | 0.0 | 0.0 | 0.00 | 0.00 | 0.00 | 92 | 1059.2 |
| 20260502235040 | 52 | 157 | 0.0 | 0.0 | 0.00 | 0.00 | 0.00 | 92 | 1059.3 |
| 20260502234926 | 52 | 157 | 0.0 | 0.0 | 0.00 | 0.00 | 0.00 | 92 | 1059.4 |
| 20260502234815 | 52 | 157 | 0.0 | 0.0 | 0.00 | 0.00 | 0.00 | 92 | 1059.4 |
| 20260502234708 | 52 | 157 | 0.0 | 0.0 | 0.00 | 0.00 | 0.00 | 92 | 1059.4 |
| 20260502234540 | 52 | 157 | 0.0 | 0.0 | 0.00 | 0.00 | 0.00 | 92 | 1059.4 |
| 20260502234433 | 52 | 157 | 0.0 | 0.0 | 0.00 | 0.00 | 0.00 | 92 | 1059.3 |
| 20260502234320 | 52 | 157 | 0.0 | 0.0 | 0.00 | 0.00 | 0.00 | 92 | 1059.4 |
| 20260502234208 | 52 | 157 | 0.0 | 0.0 | 0.00 | 0.00 | 0.00 | 92 | 1059.4 |
| 20260502234100 | 52 | 135 | 0.0 | 0.0 | 0.00 | 0.00 | 0.00 | 92 | 1059.4 |
| 20260502233948 | 52 | 135 | 0.0 | 0.0 | 0.00 | 0.00 | 0.00 | 92 | 1059.5 |
| 20260502233834 | 52 | 135 | 0.0 | 0.0 | 0.00 | 0.00 | 0.00 | 92 | 1059.3 |
| 20260502233721 | 52 | 135 | 0.0 | 0.0 | 0.00 | 0.00 | 0.00 | 92 | 1059.4 |
| 20260502233608 | 52 | 135 | 0.0 | 0.0 | 0.00 | 0.00 | 0.00 | 92 | 1059.4 |
| 20260502233447 | 52 | 135 | 0.0 | 0.0 | 0.00 | 0.00 | 0.00 | 92 | 1059.4 |
| 20260502233325 | 52 | 135 | 0.0 | 0.0 | 0.00 | 0.00 | 0.00 | 92 | 1059.4 |
| 20260502233205 | 52 | 157 | 0.0 | 0.0 | 0.00 | 0.00 | 0.00 | 92 | 1059.5 |
| 20260502233051 | 52 | 135 | 0.0 | 0.0 | 0.00 | 0.00 | 0.00 | 92 | 1059.5 |
| 20260502232938 | 52 | 180 | 5.2 | 0.0 | 0.00 | 0.00 | 0.00 | 92 | 1059.6 |
| 20260502232819 | 52 | 157 | 5.2 | 0.0 | 0.00 | 0.00 | 0.00 | 92 | 1059.8 |
| 20260502232712 | 52 | 180 | 5.2 | 0.0 | 0.00 | 0.00 | 0.00 | 92 | 1059.8 |
| 20260502232600 | 52 | 157 | 4.3 | 0.0 | 0.00 | 0.00 | 0.00 | 92 | 1059.8 |
| 20260502232453 | 52 | 180 | 8.7 | 0.0 | 0.00 | 0.00 | 0.00 | 92 | 1059.8 |
| 20260502232348 | 51 | 157 | 4.3 | 0.0 | 0.00 | 0.00 | 0.00 | 92 | 1059.8 |
| 20260502232245 | 51 | 157 | 7.0 | 0.0 | 0.00 | 0.00 | 0.00 | 92 | 1059.8 |
| 20260502232138 | 51 | 180 | 5.2 | 0.0 | 0.00 | 0.00 | 0.00 | 92 | 1059.8 |
| 20260502232033 | 51 | 135 | 5.2 | 0.0 | 0.00 | 0.00 | 0.00 | 92 | 1059.9 |
| 20260502231913 | 51 | 202 | 7.8 | 0.0 | 0.00 | 0.00 | 0.00 | 91 | 1059.8 |
| 20260502231808 | 51 | 180 | 3.5 | 0.0 | 0.00 | 0.00 | 0.00 | 91 | 1059.9 |
| 20260502231653 | 51 | 135 | 4.3 | 0.0 | 0.00 | 0.00 | 0.00 | 91 | 1059.8 |
| 20260502231541 | 51 | 180 | 4.3 | 0.0 | 0.00 | 0.00 | 0.00 | 90 | 1059.8 |
| 20260502231435 | 51 | 157 | 0.0 | 0.0 | 0.00 | 0.00 | 0.00 | 90 | 1059.7 |
| 20260502231330 | 51 | 135 | 0.0 | 0.0 | 0.00 | 0.00 | 0.00 | 90 | 1059.6 |
| 20260502231219 | 51 | 157 | 0.0 | 0.0 | 0.00 | 0.00 | 0.00 | 90 | 1059.5 |
| 20260502231111 | 51 | 247 | 0.0 | 0.0 | 0.00 | 0.00 | 0.00 | 90 | 1059.4 |
| 20260502230950 | 51 | 247 | 0.0 | 0.0 | 0.00 | 0.00 | 0.00 | 90 | 1059.4 |
| 20260502230836 | 51 | 270 | 0.0 | 0.0 | 0.00 | 0.00 | 0.00 | 90 | 1059.4 |
| 20260502230724 | 51 | 292 | 0.0 | 0.0 | 0.00 | 0.00 | 0.00 | 90 | 1059.4 |
| 20260502230603 | 51 | 315 | 0.0 | 0.0 | 0.00 | 0.00 | 0.00 | 90 | 1059.4 |
| 20260502230457 | 50 | 315 | 0.0 | 0.0 | 0.00 | 0.00 | 0.00 | 90 | 1059.3 |
| 20260502230350 | 50 | 315 | 0.0 | 0.0 | 0.00 | 0.00 | 0.00 | 90 | 1059.2 |
| 20260502230236 | 50 | 315 | 0.0 | 0.0 | 0.00 | 0.00 | 0.00 | 90 | 1059.2 |
| 20260502230129 | 50 | 315 | 0.0 | 0.0 | 0.00 | 0.00 | 0.00 | 90 | 1059.2 |
| 20260502230018 | 50 | 315 | 0.0 | 0.0 | 0.00 | 0.00 | 0.00 | 90 | 1059.2 |
| 20260502225909 | 50 | 315 | 0.0 | 0.0 | 0.00 | 0.00 | 0.00 | 90 | 1059.2 |
| 20260502225755 | 50 | 315 | 0.0 | 0.0 | 0.00 | 0.00 | 0.00 | 90 | 1059.3 |
| 20260502225644 | 50 | 315 | 0.0 | 0.0 | 0.00 | 0.00 | 0.00 | 90 | 1059.3 |
| 20260502225535 | 51 | 315 | 0.0 | 0.0 | 0.00 | 0.00 | 0.00 | 90 | 1059.3 |
| 20260502225420 | 51 | 315 | 0.0 | 0.0 | 0.00 | 0.00 | 0.00 | 90 | 1059.4 |
| 20260502225250 | 51 | 315 | 0.0 | 0.0 | 0.00 | 0.00 | 0.00 | 90 | 1059.4 |
| 20260502225136 | 51 | 315 | 0.0 | 0.0 | 0.00 | 0.00 | 0.00 | 90 | 1059.4 |
| 20260502225031 | 51 | 315 | 0.0 | 0.0 | 0.00 | 0.00 | 0.00 | 90 | 1059.5 |
| 20260502224925 | 51 | 315 | 0.0 | 0.0 | 0.00 | 0.00 | 0.00 | 90 | 1059.5 |
| 20260502224817 | 51 | 315 | 0.0 | 0.0 | 0.00 | 0.00 | 0.00 | 90 | 1059.5 |
| 20260502224657 | 51 | 315 | 0.0 | 0.0 | 0.00 | 0.00 | 0.00 | 90 | 1059.4 |
| 20260502224541 | 51 | 315 | 0.0 | 0.0 | 0.00 | 0.00 | 0.00 | 90 | 1059.5 |
| 20260502224427 | 51 | 315 | 0.0 | 0.0 | 0.00 | 0.00 | 0.00 | 90 | 1059.5 |
| 20260502224322 | 51 | 315 | 0.0 | 0.0 | 0.00 | 0.00 | 0.00 | 90 | 1059.5 |
| 20260502224215 | 51 | 315 | 0.0 | 0.0 | 0.00 | 0.00 | 0.00 | 90 | 1059.5 |
| 20260502224109 | 51 | 315 | 0.0 | 0.0 | 0.00 | 0.00 | 0.00 | 89 | 1059.5 |
| 20260502224002 | 51 | 315 | 0.0 | 0.0 | 0.00 | 0.00 | 0.00 | 89 | 1059.5 |
| 20260502223842 | 51 | 315 | 0.0 | 0.0 | 0.00 | 0.00 | 0.00 | 89 | 1059.4 |
| 20260502223726 | 51 | 315 | 0.0 | 0.0 | 0.00 | 0.00 | 0.00 | 89 | 1059.4 |
| 20260502223611 | 51 | 315 | 0.0 | 0.0 | 0.00 | 0.00 | 0.00 | 89 | 1059.5 |
| 20260502223457 | 51 | 315 | 0.0 | 0.0 | 0.00 | 0.00 | 0.00 | 89 | 1059.5 |
| 20260502223334 | 51 | 315 | 0.0 | 0.0 | 0.00 | 0.00 | 0.00 | 89 | 1059.5 |
| 20260502223221 | 51 | 315 | 0.0 | 0.0 | 0.00 | 0.00 | 0.00 | 89 | 1059.5 |
| 20260502223108 | 51 | 315 | 0.0 | 0.0 | 0.00 | 0.00 | 0.00 | 89 | 1059.4 |
| 20260502223000 | 51 | 315 | 0.0 | 0.0 | 0.00 | 0.00 | 0.00 | 89 | 1059.4 |
| 20260502222840 | 51 | 315 | 0.0 | 0.0 | 0.00 | 0.00 | 0.00 | 89 | 1059.4 |
| 20260502222735 | 51 | 337 | 0.0 | 0.0 | 0.00 | 0.00 | 0.00 | 89 | 1059.3 |
| 20260502222626 | 51 | 337 | 0.0 | 0.0 | 0.00 | 0.00 | 0.00 | 89 | 1059.2 |
| 20260502222511 | 51 | 337 | 0.0 | 0.0 | 0.00 | 0.00 | 0.00 | 89 | 1059.2 |
| 20260502222341 | 51 | 337 | 0.0 | 0.0 | 0.00 | 0.00 | 0.00 | 89 | 1059.3 |
| 20260502222227 | 51 | 337 | 0.0 | 0.0 | 0.00 | 0.00 | 0.00 | 89 | 1059.4 |
| 20260502222121 | 51 | 337 | 0.0 | 0.0 | 0.00 | 0.00 | 0.00 | 89 | 1059.3 |
| 20260502222007 | 51 | 337 | 0.0 | 0.0 | 0.00 | 0.00 | 0.00 | 89 | 1059.4 |
| 20260502221901 | 51 | 337 | 0.0 | 0.0 | 0.00 | 0.00 | 0.00 | 89 | 1059.4 |
| 20260502221749 | 51 | 337 | 0.0 | 0.0 | 0.00 | 0.00 | 0.00 | 89 | 1059.4 |
| 20260502221640 | 51 | 337 | 0.0 | 0.0 | 0.00 | 0.00 | 0.00 | 89 | 1059.4 |
| 20260502221525 | 51 | 337 | 0.0 | 0.0 | 0.00 | 0.00 | 0.00 | 89 | 1059.3 |
| 20260502221412 | 51 | 337 | 0.0 | 0.0 | 0.00 | 0.00 | 0.00 | 89 | 1059.4 |
| 20260502221306 | 51 | 337 | 0.0 | 0.0 | 0.00 | 0.00 | 0.00 | 89 | 1059.3 |
| 20260502221200 | 51 | 337 | 0.0 | 0.0 | 0.00 | 0.00 | 0.00 | 89 | 1059.2 |
| 20260502221054 | 51 | 337 | 0.0 | 0.0 | 0.00 | 0.00 | 0.00 | 89 | 1059.2 |
| 20260502220946 | 51 | 337 | 0.0 | 0.0 | 0.00 | 0.00 | 0.00 | 89 | 1059.3 |
| 20260502220817 | 51 | 337 | 0.0 | 0.0 | 0.00 | 0.00 | 0.00 | 89 | 1059.3 |
| 20260502220703 | 51 | 337 | 0.0 | 0.0 | 0.00 | 0.00 | 0.00 | 89 | 1059.2 |
| 20260502220557 | 51 | 337 | 0.0 | 0.0 | 0.00 | 0.00 | 0.00 | 89 | 1059.3 |
| 20260502220449 | 51 | 337 | 0.0 | 0.0 | 0.00 | 0.00 | 0.00 | 89 | 1059.2 |
| 20260502220330 | 51 | 337 | 0.0 | 0.0 | 0.00 | 0.00 | 0.00 | 89 | 1059.3 |
| 20260502220216 | 51 | 337 | 0.0 | 0.0 | 0.00 | 0.00 | 0.00 | 89 | 1059.3 |
| 20260502220107 | 51 | 337 | 0.0 | 0.0 | 0.00 | 0.00 | 0.00 | 89 | 1059.3 |
| 20260502215954 | 51 | 337 | 0.0 | 0.0 | 0.00 | 0.00 | 0.00 | 89 | 1059.4 |
| 20260502215841 | 52 | 337 | 0.0 | 0.0 | 0.00 | 0.00 | 0.00 | 89 | 1059.5 |
| 20260502215733 | 52 | 337 | 0.0 | 0.0 | 0.00 | 0.00 | 0.00 | 89 | 1059.4 |
| 20260502215614 | 52 | 337 | 0.0 | 0.0 | 0.00 | 0.00 | 0.00 | 89 | 1059.5 |
| 20260502215457 | 52 | 337 | 0.0 | 0.0 | 0.00 | 0.00 | 0.00 | 89 | 1059.5 |
| 20260502215344 | 52 | 337 | 0.0 | 0.0 | 0.00 | 0.00 | 0.00 | 88 | 1059.4 |
| 20260502215224 | 52 | 337 | 0.0 | 0.0 | 0.00 | 0.00 | 0.00 | 89 | 1059.3 |
| 20260502215110 | 52 | 337 | 0.0 | 0.0 | 0.00 | 0.00 | 0.00 | 89 | 1059.4 |
| 20260502215005 | 52 | 337 | 0.0 | 0.0 | 0.00 | 0.00 | 0.00 | 89 | 1059.3 |
| 20260502214858 | 52 | 337 | 0.0 | 0.0 | 0.00 | 0.00 | 0.00 | 89 | 1059.3 |
| 20260502214752 | 52 | 337 | 0.0 | 0.0 | 0.00 | 0.00 | 0.00 | 89 | 1059.4 |
| 20260502214645 | 52 | 337 | 0.0 | 0.0 | 0.00 | 0.00 | 0.00 | 89 | 1059.4 |
| 20260502214526 | 52 | 337 | 0.0 | 0.0 | 0.00 | 0.00 | 0.00 | 89 | 1059.4 |
| 20260502214419 | 52 | 337 | 0.0 | 0.0 | 0.00 | 0.00 | 0.00 | 89 | 1059.4 |
| 20260502214303 | 52 | 337 | 0.0 | 0.0 | 0.00 | 0.00 | 0.00 | 89 | 1059.4 |
| 20260502214148 | 52 | 337 | 0.0 | 0.0 | 0.00 | 0.00 | 0.00 | 89 | 1059.5 |
| 20260502214018 | 52 | 337 | 0.0 | 0.0 | 0.00 | 0.00 | 0.00 | 89 | 1059.5 |
| 20260502213904 | 52 | 337 | 0.0 | 0.0 | 0.00 | 0.00 | 0.00 | 89 | 1059.6 |
| 20260502213758 | 52 | 337 | 0.0 | 0.0 | 0.00 | 0.00 | 0.00 | 89 | 1059.7 |
| 20260502213652 | 52 | 337 | 0.0 | 0.0 | 0.00 | 0.00 | 0.00 | 89 | 1059.7 |
| 20260502213546 | 52 | 337 | 0.0 | 0.0 | 0.00 | 0.00 | 0.00 | 89 | 1059.6 |
| 20260502213440 | 52 | 337 | 0.0 | 0.0 | 0.00 | 0.00 | 0.00 | 89 | 1059.5 |
| 20260502213319 | 52 | 337 | 0.0 | 0.0 | 0.00 | 0.00 | 0.00 | 89 | 1059.6 |
| 20260502213203 | 52 | 337 | 0.0 | 0.0 | 0.00 | 0.00 | 0.00 | 89 | 1059.6 |
| 20260502213049 | 52 | 337 | 0.0 | 0.0 | 0.00 | 0.00 | 0.00 | 89 | 1059.6 |
| 20260502212941 | 52 | 337 | 0.0 | 0.0 | 0.00 | 0.00 | 0.00 | 89 | 1059.6 |
| 20260502212820 | 52 | 337 | 0.0 | 0.0 | 0.00 | 0.00 | 0.00 | 89 | 1059.5 |
| 20260502212706 | 52 | 337 | 0.0 | 0.0 | 0.00 | 0.00 | 0.00 | 89 | 1059.5 |
| 20260502212552 | 52 | 0 | 0.0 | 0.0 | 0.00 | 0.00 | 0.00 | 89 | 1059.5 |
| 20260502212446 | 52 | 337 | 0.0 | 0.0 | 0.00 | 0.00 | 0.00 | 89 | 1059.5 |
| 20260502212338 | 52 | 337 | 0.0 | 0.0 | 0.00 | 0.00 | 0.00 | 89 | 1059.5 |
| 20260502212209 | 52 | 337 | 0.0 | 0.0 | 0.00 | 0.00 | 0.00 | 89 | 1059.4 |
| 20260502212056 | 52 | 337 | 0.0 | 0.0 | 0.00 | 0.00 | 0.00 | 88 | 1059.5 |
| 20260502211948 | 52 | 337 | 0.0 | 0.0 | 0.00 | 0.00 | 0.00 | 89 | 1059.5 |
| 20260502211826 | 52 | 337 | 0.0 | 0.0 | 0.00 | 0.00 | 0.00 | 89 | 1059.7 |
| 20260502211713 | 53 | 337 | 0.0 | 0.0 | 0.00 | 0.00 | 0.00 | 88 | 1059.6 |
| 20260502211559 | 53 | 337 | 0.0 | 0.0 | 0.00 | 0.00 | 0.00 | 88 | 1059.6 |
| 20260502211452 | 53 | 337 | 0.0 | 0.0 | 0.00 | 0.00 | 0.00 | 88 | 1059.5 |
| 20260502211346 | 53 | 337 | 0.0 | 0.0 | 0.00 | 0.00 | 0.00 | 88 | 1059.5 |
| 20260502211240 | 53 | 337 | 0.0 | 0.0 | 0.00 | 0.00 | 0.00 | 88 | 1059.5 |
| 20260502211134 | 53 | 337 | 0.0 | 0.0 | 0.00 | 0.00 | 0.00 | 88 | 1059.5 |
| 20260502211011 | 53 | 337 | 0.0 | 0.0 | 0.00 | 0.00 | 0.00 | 88 | 1059.5 |
| 20260502210857 | 53 | 315 | 1.7 | 0.0 | 0.00 | 0.00 | 0.00 | 88 | 1059.5 |
| 20260502210743 | 53 | 337 | 0.0 | 0.0 | 0.00 | 0.00 | 0.00 | 88 | 1059.6 |
| 20260502210628 | 53 | 0 | 0.0 | 0.0 | 0.00 | 0.00 | 0.00 | 88 | 1059.5 |
| 20260502210513 | 53 | 0 | 0.0 | 0.0 | 0.00 | 0.00 | 0.00 | 88 | 1059.6 |
| 20260502210401 | 53 | 0 | 0.0 | 0.0 | 0.00 | 0.00 | 0.00 | 88 | 1059.5 |
| 20260502210255 | 53 | 0 | 0.0 | 0.0 | 0.00 | 0.00 | 0.00 | 88 | 1059.6 |
| 20260502210148 | 53 | 337 | 0.0 | 0.0 | 0.00 | 0.00 | 0.00 | 88 | 1059.7 |
| 20260502210037 | 53 | 337 | 0.0 | 0.0 | 0.00 | 0.00 | 0.00 | 88 | 1059.6 |
| 20260502205930 | 53 | 315 | 0.0 | 0.0 | 0.00 | 0.00 | 0.00 | 88 | 1059.7 |
| 20260502205809 | 53 | 315 | 0.0 | 0.0 | 0.00 | 0.00 | 0.00 | 88 | 1059.6 |
| 20260502205656 | 53 | 337 | 4.3 | 0.0 | 0.00 | 0.00 | 0.00 | 88 | 1059.6 |
| 20260502205535 | 53 | 337 | 0.0 | 0.0 | 0.00 | 0.00 | 0.00 | 88 | 1059.7 |
| 20260502205422 | 53 | 337 | 0.0 | 0.0 | 0.00 | 0.00 | 0.00 | 88 | 1059.7 |
| 20260502205300 | 53 | 337 | 0.0 | 0.0 | 0.00 | 0.00 | 0.00 | 88 | 1059.7 |
| 20260502205147 | 53 | 315 | 0.0 | 0.0 | 0.00 | 0.00 | 0.00 | 88 | 1059.8 |
| 20260502205034 | 53 | 315 | 0.0 | 0.0 | 0.00 | 0.00 | 0.00 | 88 | 1059.9 |
| 20260502204923 | 53 | 315 | 0.0 | 0.0 | 0.00 | 0.00 | 0.00 | 88 | 1059.8 |
| 20260502204817 | 53 | 315 | 0.0 | 0.0 | 0.00 | 0.00 | 0.00 | 88 | 1059.9 |
| 20260502204712 | 53 | 315 | 0.0 | 0.0 | 0.00 | 0.00 | 0.00 | 88 | 1059.9 |
| 20260502204606 | 53 | 315 | 0.0 | 0.0 | 0.00 | 0.00 | 0.00 | 88 | 1059.9 |
| 20260502204454 | 53 | 315 | 0.0 | 0.0 | 0.00 | 0.00 | 0.00 | 88 | 1059.9 |
| 20260502204348 | 53 | 337 | 0.0 | 0.0 | 0.00 | 0.00 | 0.00 | 88 | 1059.9 |
| 20260502204236 | 53 | 315 | 0.0 | 0.0 | 0.00 | 0.00 | 0.00 | 88 | 1059.9 |
| 20260502204132 | 53 | 315 | 1.7 | 0.0 | 0.00 | 0.00 | 0.00 | 88 | 1059.9 |
| 20260502204017 | 53 | 315 | 0.0 | 0.0 | 0.00 | 0.00 | 0.00 | 88 | 1059.9 |
| 20260502203904 | 53 | 315 | 0.0 | 0.0 | 0.00 | 0.00 | 0.00 | 88 | 1059.9 |
| 20260502203751 | 53 | 315 | 0.0 | 0.0 | 0.00 | 0.00 | 0.00 | 88 | 1059.9 |
| 20260502203646 | 53 | 315 | 0.0 | 0.0 | 0.00 | 0.00 | 0.00 | 87 | 1059.9 |
| 20260502203533 | 53 | 315 | 0.0 | 0.0 | 0.00 | 0.00 | 0.00 | 88 | 1059.8 |
| 20260502203412 | 53 | 315 | 0.0 | 0.0 | 0.00 | 0.00 | 0.00 | 87 | 1059.9 |
| 20260502203258 | 53 | 315 | 0.0 | 0.0 | 0.00 | 0.00 | 0.00 | 87 | 1059.9 |
| 20260502203144 | 53 | 315 | 0.0 | 0.0 | 0.00 | 0.00 | 0.00 | 87 | 1059.9 |
| 20260502203031 | 53 | 315 | 2.6 | 0.0 | 0.00 | 0.00 | 0.00 | 87 | 1059.9 |
| 20260502202911 | 53 | 315 | 0.0 | 0.0 | 0.00 | 0.00 | 0.00 | 87 | 1060.0 |
| 20260502202804 | 53 | 315 | 0.0 | 0.0 | 0.00 | 0.00 | 0.00 | 87 | 1060.0 |
| 20260502202645 | 53 | 337 | 0.0 | 0.0 | 0.00 | 0.00 | 0.00 | 87 | 1060.0 |
| 20260502202542 | 53 | 315 | 0.0 | 0.0 | 0.00 | 0.00 | 0.00 | 87 | 1059.9 |
| 20260502202435 | 53 | 337 | 0.0 | 0.0 | 0.00 | 0.00 | 0.00 | 87 | 1060.0 |
| 20260502202331 | 53 | 337 | 0.0 | 0.0 | 0.00 | 0.00 | 0.00 | 87 | 1059.9 |
| 20260502202226 | 53 | 337 | 0.0 | 0.0 | 0.00 | 0.00 | 0.00 | 87 | 1060.0 |
| 20260502202119 | 53 | 337 | 0.0 | 0.0 | 0.00 | 0.00 | 0.00 | 87 | 1060.0 |
| 20260502201958 | 53 | 337 | 0.0 | 0.0 | 0.00 | 0.00 | 0.00 | 87 | 1060.0 |
| 20260502201837 | 54 | 337 | 0.0 | 0.0 | 0.00 | 0.00 | 0.00 | 87 | 1060.0 |
| 20260502201724 | 54 | 315 | 0.0 | 0.0 | 0.00 | 0.00 | 0.00 | 87 | 1060.0 |
| 20260502201610 | 54 | 337 | 0.0 | 0.0 | 0.00 | 0.00 | 0.00 | 87 | 1060.0 |
| 20260502201442 | 54 | 315 | 0.0 | 0.0 | 0.00 | 0.00 | 0.00 | 87 | 1060.0 |
| 20260502201320 | 54 | 315 | 0.0 | 0.0 | 0.00 | 0.00 | 0.00 | 87 | 1060.1 |
| 20260502201159 | 54 | 337 | 0.0 | 0.0 | 0.00 | 0.00 | 0.00 | 87 | 1060.0 |
| 20260502201046 | 54 | 337 | 0.0 | 0.0 | 0.00 | 0.00 | 0.00 | 87 | 1060.0 |
| 20260502200932 | 54 | 337 | 0.0 | 0.0 | 0.00 | 0.00 | 0.00 | 87 | 1060.1 |
| 20260502200821 | 54 | 337 | 0.0 | 0.0 | 0.00 | 0.00 | 0.00 | 87 | 1060.0 |
| 20260502200658 | 54 | 337 | 0.0 | 0.0 | 0.00 | 0.00 | 0.00 | 87 | 1060.1 |
| 20260502200529 | 54 | 337 | 3.5 | 0.0 | 0.00 | 0.00 | 0.00 | 87 | 1060.1 |
| 20260502200416 | 54 | 337 | 0.0 | 0.0 | 0.00 | 0.00 | 0.00 | 87 | 1060.1 |
| 20260502200310 | 54 | 337 | 0.0 | 0.0 | 0.00 | 0.00 | 0.00 | 87 | 1060.0 |
| 20260502200200 | 54 | 337 | 0.0 | 0.0 | 0.00 | 0.00 | 0.00 | 87 | 1060.1 |
| 20260502200052 | 54 | 337 | 5.2 | 0.0 | 0.00 | 0.00 | 0.00 | 87 | 1060.1 |
| 20260502195933 | 54 | 0 | 0.0 | 0.0 | 0.00 | 0.00 | 0.00 | 87 | 1060.1 |
| 20260502195818 | 54 | 337 | 0.0 | 0.0 | 0.00 | 0.00 | 0.00 | 86 | 1060.0 |
| 20260502195657 | 54 | 315 | 0.0 | 0.0 | 0.00 | 0.00 | 0.00 | 86 | 1060.1 |
| 20260502195527 | 54 | 337 | 2.6 | 0.0 | 0.00 | 0.00 | 0.00 | 86 | 1060.1 |
| 20260502195406 | 54 | 337 | 0.0 | 0.0 | 0.00 | 0.00 | 0.00 | 86 | 1060.1 |
| 20260502195255 | 54 | 292 | 0.0 | 0.0 | 0.00 | 0.00 | 0.00 | 86 | 1060.1 |
| 20260502195148 | 54 | 315 | 0.0 | 0.0 | 0.00 | 0.00 | 0.00 | 86 | 1060.1 |
| 20260502195035 | 54 | 315 | 0.0 | 0.0 | 0.00 | 0.00 | 0.00 | 86 | 1060.1 |
| 20260502194924 | 54 | 315 | 0.0 | 0.0 | 0.00 | 0.00 | 0.00 | 86 | 1060.1 |
| 20260502194817 | 54 | 315 | 0.0 | 0.0 | 0.00 | 0.00 | 0.00 | 86 | 1060.1 |
| 20260502194656 | 54 | 315 | 0.0 | 0.0 | 0.00 | 0.00 | 0.00 | 86 | 1060.1 |
| 20260502194551 | 54 | 315 | 0.0 | 0.0 | 0.00 | 0.00 | 0.00 | 86 | 1060.1 |
| 20260502194429 | 54 | 315 | 0.0 | 0.0 | 0.00 | 0.00 | 0.00 | 86 | 1060.2 |
| 20260502194316 | 54 | 315 | 0.0 | 0.0 | 0.00 | 0.00 | 0.00 | 86 | 1060.1 |
| 20260502194155 | 54 | 315 | 0.0 | 0.0 | 0.00 | 0.00 | 0.00 | 85 | 1060.1 |
| 20260502194044 | 54 | 337 | 0.0 | 0.0 | 0.00 | 0.00 | 0.00 | 85 | 1060.1 |
| 20260502193929 | 55 | 337 | 0.0 | 0.0 | 0.00 | 0.00 | 0.00 | 85 | 1060.1 |
| 20260502193815 | 55 | 315 | 0.0 | 0.0 | 0.00 | 0.00 | 0.00 | 85 | 1060.2 |
| 20260502193646 | 55 | 315 | 4.3 | 0.0 | 0.00 | 0.00 | 0.00 | 85 | 1060.2 |
| 20260502193525 | 55 | 292 | 0.0 | 0.0 | 0.00 | 0.00 | 0.00 | 85 | 1060.1 |
| 20260502193414 | 55 | 315 | 0.0 | 0.0 | 0.00 | 0.00 | 0.00 | 85 | 1060.1 |
| 20260502193308 | 55 | 292 | 0.0 | 0.0 | 0.00 | 0.00 | 0.00 | 84 | 1060.1 |
| 20260502193153 | 55 | 315 | 0.0 | 0.0 | 0.00 | 0.00 | 0.00 | 84 | 1060.1 |
| 20260502193039 | 55 | 315 | 4.3 | 0.0 | 0.00 | 0.00 | 0.00 | 84 | 1060.1 |
| 20260502192916 | 55 | 315 | 0.0 | 0.0 | 0.00 | 0.00 | 0.00 | 84 | 1060.0 |
| 20260502192802 | 55 | 337 | 0.0 | 0.0 | 0.00 | 0.00 | 0.00 | 84 | 1060.0 |
| 20260502192648 | 55 | 337 | 1.7 | 0.0 | 0.00 | 0.00 | 0.00 | 84 | 1060.0 |
| 20260502192543 | 55 | 315 | 0.0 | 0.0 | 0.00 | 0.00 | 0.00 | 84 | 1059.9 |
| 20260502192437 | 55 | 315 | 0.0 | 0.0 | 0.00 | 0.00 | 0.00 | 84 | 1060.0 |
| 20260502192316 | 55 | 315 | 0.0 | 0.0 | 0.00 | 0.00 | 0.00 | 84 | 1060.0 |
| 20260502192203 | 55 | 315 | 0.0 | 0.0 | 0.00 | 0.00 | 0.00 | 84 | 1060.0 |
| 20260502192057 | 55 | 337 | 0.0 | 0.0 | 0.00 | 0.00 | 0.00 | 84 | 1060.0 |
| 20260502191944 | 55 | 337 | 0.0 | 0.0 | 0.00 | 0.00 | 0.00 | 84 | 1060.0 |
| 20260502191830 | 55 | 315 | 3.5 | 0.0 | 0.00 | 0.00 | 0.00 | 84 | 1059.9 |
| 20260502191701 | 55 | 292 | 0.0 | 0.0 | 0.00 | 0.00 | 0.00 | 84 | 1060.0 |
| 20260502191555 | 56 | 315 | 0.0 | 0.0 | 0.00 | 0.00 | 0.00 | 83 | 1060.0 |
| 20260502191434 | 56 | 315 | 0.0 | 0.0 | 0.00 | 0.00 | 0.00 | 83 | 1060.0 |
| 20260502191320 | 56 | 315 | 5.2 | 0.0 | 0.00 | 0.00 | 0.00 | 83 | 1060.0 |
| 20260502191206 | 56 | 315 | 3.5 | 0.0 | 0.00 | 0.00 | 0.00 | 83 | 1059.8 |
| 20260502191101 | 56 | 315 | 0.0 | 0.0 | 0.00 | 0.00 | 0.00 | 83 | 1059.9 |
| 20260502190948 | 56 | 315 | 0.0 | 0.0 | 0.00 | 0.00 | 0.00 | 82 | 1059.8 |
| 20260502190827 | 56 | 337 | 3.5 | 0.0 | 0.00 | 0.00 | 0.00 | 82 | 1059.9 |
| 20260502190712 | 56 | 315 | 0.0 | 0.0 | 0.00 | 0.00 | 0.00 | 82 | 1059.8 |
| 20260502190559 | 56 | 337 | 0.0 | 0.0 | 0.00 | 0.00 | 0.00 | 82 | 1059.8 |
| 20260502190446 | 56 | 315 | 0.0 | 0.0 | 0.00 | 0.00 | 0.00 | 82 | 1059.9 |
| 20260502190335 | 57 | 337 | 0.0 | 0.0 | 0.00 | 0.00 | 0.00 | 82 | 1059.8 |
| 20260502190227 | 57 | 337 | 4.3 | 0.0 | 0.00 | 0.00 | 0.00 | 82 | 1059.9 |
| 20260502190101 | 57 | 315 | 0.0 | 0.0 | 0.00 | 0.00 | 0.00 | 82 | 1059.8 |
| 20260502185953 | 57 | 337 | 0.0 | 0.0 | 0.00 | 0.00 | 0.00 | 81 | 1059.8 |
| 20260502185832 | 57 | 315 | 1.7 | 0.0 | 0.00 | 0.00 | 0.00 | 81 | 1059.8 |
| 20260502185721 | 57 | 337 | 1.7 | 0.0 | 0.00 | 0.00 | 0.00 | 81 | 1059.7 |
| 20260502185558 | 57 | 292 | 0.0 | 0.0 | 0.00 | 0.00 | 0.00 | 81 | 1059.9 |
| 20260502185445 | 58 | 315 | 0.0 | 0.0 | 0.00 | 0.00 | 0.00 | 81 | 1059.8 |
| 20260502185339 | 58 | 315 | 4.3 | 0.0 | 0.00 | 0.00 | 0.00 | 80 | 1059.9 |
| 20260502185227 | 58 | 337 | 5.2 | 0.0 | 0.00 | 0.00 | 0.00 | 80 | 1059.9 |
| 20260502185107 | 58 | 292 | 3.5 | 0.0 | 0.00 | 0.00 | 0.00 | 80 | 1059.9 |
| 20260502185001 | 58 | 337 | 3.5 | 0.0 | 0.00 | 0.00 | 0.00 | 79 | 1059.9 |
| 20260502184847 | 59 | 292 | 4.3 | 0.0 | 0.00 | 0.00 | 0.00 | 78 | 1059.9 |
| 20260502184741 | 59 | 315 | 0.0 | 0.0 | 0.00 | 0.00 | 0.00 | 78 | 1059.8 |
| 20260502184619 | 59 | 337 | 2.6 | 0.0 | 0.00 | 0.00 | 0.00 | 78 | 1059.8 |
| 20260502184442 | 59 | 0 | 5.2 | 0.0 | 0.00 | 0.00 | 0.00 | 77 | 1059.8 |
| 20260502184328 | 59 | 270 | 0.0 | 0.0 | 0.00 | 0.00 | 0.00 | 76 | 1059.8 |
| 20260502184215 | 59 | 292 | 3.5 | 0.0 | 0.00 | 0.00 | 0.00 | 76 | 1059.8 |
| 20260502184111 | 59 | 315 | 2.6 | 0.0 | 0.00 | 0.00 | 0.00 | 76 | 1059.8 |
| 20260502184005 | 60 | 292 | 5.2 | 0.0 | 0.00 | 0.00 | 0.00 | 75 | 1059.8 |
| 20260502183844 | 60 | 315 | 4.3 | 0.0 | 0.00 | 0.00 | 0.00 | 75 | 1059.8 |
| 20260502183740 | 60 | 337 | 4.3 | 0.0 | 0.00 | 0.00 | 0.00 | 75 | 1059.8 |
| 20260502183634 | 60 | 337 | 5.2 | 0.0 | 0.00 | 0.00 | 0.00 | 74 | 1059.9 |
| 20260502183512 | 60 | 337 | 3.5 | 0.0 | 0.00 | 0.00 | 0.00 | 73 | 1059.9 |
| 20260502183402 | 60 | 0 | 3.5 | 0.0 | 0.00 | 0.00 | 0.00 | 73 | 1059.9 |
| 20260502183254 | 61 | 315 | 5.2 | 0.0 | 0.00 | 0.00 | 0.00 | 72 | 1059.9 |
| 20260502183143 | 61 | 315 | 7.0 | 0.0 | 0.00 | 0.00 | 0.00 | 72 | 1059.9 |
| 20260502183037 | 61 | 337 | 1.7 | 0.0 | 0.00 | 0.00 | 0.00 | 71 | 1060.0 |
| 20260502182926 | 61 | 315 | 0.0 | 0.0 | 0.00 | 0.00 | 0.00 | 71 | 1060.0 |
| 20260502182820 | 61 | 0 | 0.0 | 0.0 | 0.00 | 0.00 | 0.00 | 71 | 1059.9 |
| 20260502182714 | 62 | 0 | 0.0 | 0.0 | 0.00 | 0.00 | 0.00 | 71 | 1059.9 |
| 20260502182607 | 62 | 337 | 3.5 | 0.0 | 0.00 | 0.00 | 0.00 | 71 | 1060.0 |
| 20260502182446 | 62 | 337 | 5.2 | 0.0 | 0.00 | 0.00 | 0.00 | 71 | 1059.9 |
| 20260502182332 | 62 | 315 | 5.2 | 0.0 | 0.00 | 0.00 | 0.00 | 70 | 1059.9 |
| 20260502182212 | 62 | 315 | 1.7 | 0.0 | 0.00 | 0.00 | 0.00 | 70 | 1060.0 |
| 20260502182058 | 62 | 315 | 3.5 | 0.0 | 0.00 | 0.00 | 0.00 | 70 | 1060.0 |
| 20260502181937 | 62 | 337 | 3.5 | 0.0 | 0.00 | 0.00 | 0.00 | 70 | 1060.0 |
| 20260502181824 | 62 | 0 | 0.0 | 0.0 | 0.00 | 0.00 | 0.00 | 70 | 1059.9 |
| 20260502181710 | 62 | 337 | 0.0 | 0.0 | 0.00 | 0.00 | 0.00 | 70 | 1060.0 |
| 20260502181550 | 62 | 315 | 3.5 | 0.0 | 0.00 | 0.00 | 0.00 | 70 | 1059.9 |
| 20260502181436 | 63 | 337 | 0.0 | 0.0 | 0.00 | 0.00 | 0.00 | 70 | 1059.9 |
| 20260502181307 | 63 | 315 | 1.7 | 0.0 | 0.00 | 0.00 | 0.00 | 70 | 1060.0 |
| 20260502181146 | 63 | 315 | 0.0 | 0.0 | 0.00 | 0.00 | 0.00 | 69 | 1060.0 |
| 20260502181042 | 63 | 315 | 3.5 | 0.0 | 0.00 | 0.00 | 0.00 | 69 | 1060.0 |
| 20260502180937 | 63 | 315 | 0.0 | 0.0 | 0.00 | 0.00 | 0.00 | 69 | 1060.0 |
| 20260502180830 | 63 | 315 | 0.9 | 0.0 | 0.00 | 0.00 | 0.00 | 69 | 1060.0 |
| 20260502180710 | 63 | 337 | 2.6 | 0.0 | 0.00 | 0.00 | 0.00 | 69 | 1060.0 |
| 20260502180556 | 63 | 315 | 2.6 | 0.0 | 0.00 | 0.00 | 0.00 | 69 | 1060.0 |
| 20260502180427 | 63 | 315 | 0.0 | 0.0 | 0.00 | 0.00 | 0.00 | 69 | 1060.0 |
| 20260502180314 | 63 | 315 | 5.2 | 0.0 | 0.00 | 0.00 | 0.00 | 69 | 1060.0 |
| 20260502180200 | 64 | 0 | 0.0 | 0.0 | 0.00 | 0.00 | 0.00 | 69 | 1060.1 |
| 20260502170422 | 66 | 315 | 5.2 | 0.0 | 0.00 | 0.00 | 0.00 | 69 | 1060.3 |
| 20260502170314 | 66 | 337 | 7.0 | 0.0 | 0.00 | 0.00 | 0.00 | 70 | 1060.3 |
| 20260502170201 | 66 | 315 | 2.6 | 0.0 | 0.00 | 0.00 | 0.00 | 70 | 1060.2 |
| 20260502164246 | 65 | 0 | 0.0 | 0.0 | 0.00 | 0.00 | 0.00 | 72 | 1060.3 |
| 20260502164137 | 65 | 337 | 5.2 | 0.0 | 0.00 | 0.00 | 0.00 | 72 | 1060.3 |
| 20260502164024 | 65 | 292 | 7.0 | 0.0 | 0.00 | 0.00 | 0.00 | 72 | 1060.3 |
| 20260502163910 | 65 | 315 | 7.8 | 0.0 | 0.00 | 0.00 | 0.00 | 73 | 1060.3 |
| 20260502163756 | 65 | 315 | 4.3 | 0.0 | 0.00 | 0.00 | 0.00 | 73 | 1060.3 |
| 20260502163644 | 65 | 315 | 3.5 | 0.0 | 0.00 | 0.00 | 0.00 | 73 | 1060.2 |
| 20260502163537 | 65 | 292 | 3.5 | 0.0 | 0.00 | 0.00 | 0.00 | 73 | 1060.3 |
| 20260502163416 | 65 | 315 | 3.5 | 0.0 | 0.00 | 0.00 | 0.00 | 73 | 1060.2 |
| 20260502163311 | 65 | 337 | 2.6 | 0.0 | 0.00 | 0.00 | 0.00 | 73 | 1060.2 |
| 20260502163149 | 65 | 337 | 0.0 | 0.0 | 0.00 | 0.00 | 0.00 | 73 | 1060.3 |
| 20260502163038 | 65 | 315 | 4.3 | 0.0 | 0.00 | 0.00 | 0.00 | 73 | 1060.3 |
| 20260502162932 | 65 | 337 | 3.5 | 0.0 | 0.00 | 0.00 | 0.00 | 73 | 1060.2 |
| 20260502162819 | 65 | 315 | 4.3 | 0.0 | 0.00 | 0.00 | 0.00 | 73 | 1060.3 |
| 20260502162713 | 65 | 292 | 6.1 | 0.0 | 0.00 | 0.00 | 0.00 | 73 | 1060.2 |
| 20260502162608 | 65 | 315 | 0.0 | 0.0 | 0.00 | 0.00 | 0.00 | 73 | 1060.3 |
| 20260502162501 | 65 | 337 | 5.2 | 0.0 | 0.00 | 0.00 | 0.00 | 73 | 1060.2 |
| 20260502162355 | 65 | 292 | 0.0 | 0.0 | 0.00 | 0.00 | 0.00 | 73 | 1060.4 |
| 20260502162248 | 65 | 315 | 3.5 | 0.0 | 0.00 | 0.00 | 0.00 | 73 | 1060.3 |
| 20260502162129 | 65 | 315 | 4.3 | 0.0 | 0.00 | 0.00 | 0.00 | 73 | 1060.3 |
| 20260502162021 | 65 | 337 | 9.6 | 0.0 | 0.00 | 0.00 | 0.00 | 73 | 1060.3 |
| 20260502161908 | 65 | 315 | 7.8 | 0.0 | 0.00 | 0.00 | 0.00 | 73 | 1060.3 |
| 20260502161756 | 65 | 315 | 3.5 | 0.0 | 0.00 | 0.00 | 0.00 | 73 | 1060.4 |
| 20260502161650 | 65 | 315 | 4.3 | 0.0 | 0.00 | 0.00 | 0.00 | 73 | 1060.4 |
| 20260502161530 | 65 | 315 | 6.1 | 0.0 | 0.00 | 0.00 | 0.00 | 73 | 1060.4 |
| 20260502161417 | 65 | 45 | 2.6 | 0.0 | 0.00 | 0.00 | 0.00 | 73 | 1060.3 |
| 20260502161312 | 66 | 292 | 1.7 | 0.0 | 0.00 | 0.00 | 0.00 | 73 | 1060.4 |
| 20260502161207 | 66 | 315 | 5.2 | 0.0 | 0.00 | 0.00 | 0.00 | 73 | 1060.4 |
| 20260502161058 | 66 | 315 | 3.5 | 0.0 | 0.00 | 0.00 | 0.00 | 73 | 1060.4 |
| 20260502160946 | 66 | 337 | 3.5 | 0.0 | 0.00 | 0.00 | 0.00 | 73 | 1060.3 |
| 20260502160841 | 66 | 315 | 5.2 | 0.0 | 0.00 | 0.00 | 0.00 | 73 | 1060.4 |
| 20260502160713 | 66 | 315 | 3.5 | 0.0 | 0.00 | 0.00 | 0.00 | 72 | 1060.4 |
| 20260502160559 | 66 | 315 | 3.5 | 0.0 | 0.00 | 0.00 | 0.00 | 72 | 1060.3 |
| 20260502160445 | 66 | 292 | 6.1 | 0.0 | 0.00 | 0.00 | 0.00 | 72 | 1060.3 |
| 20260502160331 | 66 | 337 | 3.5 | 0.0 | 0.00 | 0.00 | 0.00 | 72 | 1060.4 |
| 20260502160219 | 66 | 292 | 5.2 | 0.0 | 0.00 | 0.00 | 0.00 | 71 | 1060.4 |
| 20260502160105 | 66 | 270 | 7.8 | 0.0 | 0.00 | 0.00 | 0.00 | 71 | 1060.4 |
| 20260502152335 | 70 | 315 | 4.3 | 0.0 | 0.00 | 0.00 | 0.00 | 66 | 1060.4 |
| 20260502152229 | 70 | 292 | 5.2 | 0.0 | 0.00 | 0.00 | 0.00 | 66 | 1060.4 |
| 20260502152059 | 70 | 292 | 4.3 | 0.0 | 0.00 | 0.00 | 0.00 | 66 | 1060.5 |
| 20260502151945 | 70 | 315 | 4.3 | 0.0 | 0.00 | 0.00 | 0.00 | 66 | 1060.5 |
| 20260502151830 | 70 | 315 | 5.2 | 0.0 | 0.00 | 0.00 | 0.00 | 66 | 1060.5 |
| 20260502151709 | 70 | 0 | 2.6 | 0.0 | 0.00 | 0.00 | 0.00 | 66 | 1060.5 |
| 20260502151547 | 70 | 315 | 6.1 | 0.0 | 0.00 | 0.00 | 0.00 | 66 | 1060.5 |
| 20260502151428 | 70 | 337 | 3.5 | 0.0 | 0.00 | 0.00 | 0.00 | 66 | 1060.5 |
| 20260502151321 | 70 | 292 | 2.6 | 0.0 | 0.00 | 0.00 | 0.00 | 65 | 1060.5 |
| 20260502151208 | 70 | 292 | 8.7 | 0.0 | 0.00 | 0.00 | 0.00 | 65 | 1060.5 |
| 20260502151047 | 70 | 292 | 5.2 | 0.0 | 0.00 | 0.00 | 0.00 | 65 | 1060.6 |
| 20260502150934 | 70 | 270 | 2.6 | 0.0 | 0.00 | 0.00 | 0.00 | 66 | 1060.5 |
| 20260502150820 | 70 | 337 | 2.6 | 0.0 | 0.00 | 0.00 | 0.00 | 66 | 1060.5 |
| 20260502150652 | 70 | 292 | 3.5 | 0.0 | 0.00 | 0.00 | 0.00 | 66 | 1060.6 |
| 20260502150546 | 70 | 292 | 0.0 | 0.0 | 0.00 | 0.00 | 0.00 | 65 | 1060.6 |
| 20260502150440 | 70 | 337 | 0.0 | 0.0 | 0.00 | 0.00 | 0.00 | 65 | 1060.6 |
| 20260502150319 | 70 | 292 | 4.3 | 0.0 | 0.00 | 0.00 | 0.00 | 65 | 1060.7 |
| 20260502150204 | 70 | 315 | 7.8 | 0.0 | 0.00 | 0.00 | 0.00 | 65 | 1060.7 |
| 20260502140108 | 69 | 315 | 2.6 | 0.0 | 0.00 | 0.00 | 0.00 | 64 | 1061.0 |
| 20260502130633 | 71 | 315 | 3.5 | 0.0 | 0.00 | 0.00 | 0.00 | 48 | 1061.4 |
| 20260502130526 | 72 | 292 | 5.2 | 0.0 | 0.00 | 0.00 | 0.00 | 48 | 1061.3 |
| 20260502130413 | 72 | 292 | 5.2 | 0.0 | 0.00 | 0.00 | 0.00 | 47 | 1061.3 |
| 20260502130300 | 72 | 315 | 6.1 | 0.0 | 0.00 | 0.00 | 0.00 | 47 | 1061.3 |
| 20260502130138 | 72 | 315 | 5.2 | 0.0 | 0.00 | 0.00 | 0.00 | 47 | 1061.3 |
| 20260502123750 | 69 | 315 | 4.3 | 0.0 | 0.00 | 0.00 | 0.00 | 54 | 1061.5 |
| 20260502123643 | 69 | 292 | 2.6 | 0.0 | 0.00 | 0.00 | 0.00 | 55 | 1061.6 |
| 20260502123522 | 69 | 292 | 5.2 | 0.0 | 0.00 | 0.00 | 0.00 | 55 | 1061.6 |
| 20260502123409 | 69 | 315 | 3.5 | 0.0 | 0.00 | 0.00 | 0.00 | 55 | 1061.5 |
| 20260502123255 | 69 | 270 | 4.3 | 0.0 | 0.00 | 0.00 | 0.00 | 56 | 1061.5 |
| 20260502123135 | 69 | 315 | 0.9 | 0.0 | 0.00 | 0.00 | 0.00 | 56 | 1061.6 |
| 20260502123030 | 68 | 315 | 4.3 | 0.0 | 0.00 | 0.00 | 0.00 | 57 | 1061.6 |
| 20260502122923 | 68 | 270 | 3.5 | 0.0 | 0.00 | 0.00 | 0.00 | 57 | 1061.6 |
| 20260502122804 | 68 | 292 | 5.2 | 0.0 | 0.00 | 0.00 | 0.00 | 57 | 1061.7 |
| 20260502122650 | 68 | 270 | 1.7 | 0.0 | 0.00 | 0.00 | 0.00 | 57 | 1061.6 |
| 20260502122536 | 68 | 337 | 3.5 | 0.0 | 0.00 | 0.00 | 0.00 | 57 | 1061.7 |
| 20260502122424 | 68 | 292 | 4.3 | 0.0 | 0.00 | 0.00 | 0.00 | 57 | 1061.7 |
| 20260502122310 | 68 | 292 | 2.6 | 0.0 | 0.00 | 0.00 | 0.00 | 57 | 1061.7 |
| 20260502122149 | 68 | 337 | 0.0 | 0.0 | 0.00 | 0.00 | 0.00 | 56 | 1061.7 |
| 20260502122020 | 69 | 292 | 5.2 | 0.0 | 0.00 | 0.00 | 0.00 | 56 | 1061.7 |
| 20260502121907 | 69 | 292 | 6.1 | 0.0 | 0.00 | 0.00 | 0.00 | 55 | 1061.7 |
| 20260502121802 | 69 | 292 | 6.1 | 0.0 | 0.00 | 0.00 | 0.00 | 55 | 1061.7 |
| 20260502121643 | 69 | 315 | 0.0 | 0.0 | 0.00 | 0.00 | 0.00 | 54 | 1061.7 |
| 20260502121538 | 69 | 292 | 5.2 | 0.0 | 0.00 | 0.00 | 0.00 | 54 | 1061.7 |
| 20260502121431 | 70 | 292 | 3.5 | 0.0 | 0.00 | 0.00 | 0.00 | 53 | 1061.7 |
| 20260502121309 | 70 | 292 | 4.3 | 0.0 | 0.00 | 0.00 | 0.00 | 52 | 1061.7 |
| 20260502121148 | 71 | 315 | 5.2 | 0.0 | 0.00 | 0.00 | 0.00 | 52 | 1061.6 |
| 20260502121035 | 72 | 270 | 8.7 | 0.0 | 0.00 | 0.00 | 0.00 | 50 | 1061.6 |
| 20260502120914 | 72 | 292 | 13.0 | 0.0 | 0.00 | 0.00 | 0.00 | 50 | 1061.6 |
| 20260502120801 | 72 | 315 | 8.7 | 0.0 | 0.00 | 0.00 | 0.00 | 49 | 1061.7 |
| 20260502120647 | 73 | 292 | 5.2 | 0.0 | 0.00 | 0.00 | 0.00 | 49 | 1061.7 |
| 20260502120535 | 73 | 270 | 9.6 | 0.0 | 0.00 | 0.00 | 0.00 | 48 | 1061.7 |
| 20260502120421 | 73 | 270 | 3.5 | 0.0 | 0.00 | 0.00 | 0.00 | 48 | 1061.7 |
| 20260502120301 | 73 | 292 | 3.5 | 0.0 | 0.00 | 0.00 | 0.00 | 48 | 1061.7 |
| 20260502120148 | 73 | 315 | 3.5 | 0.0 | 0.00 | 0.00 | 0.00 | 47 | 1061.7 |
| 20260502115833 | 74 | 270 | 5.2 | 0.0 | 0.00 | 0.00 | 0.00 | 47 | 1061.7 |
| 20260502115727 | 74 | 270 | 6.1 | 0.0 | 0.00 | 0.00 | 0.00 | 47 | 1061.6 |
| 20260502115606 | 74 | 292 | 3.5 | 0.0 | 0.00 | 0.00 | 0.00 | 46 | 1061.7 |
| 20260502115453 | 74 | 270 | 4.3 | 0.0 | 0.00 | 0.00 | 0.00 | 46 | 1061.6 |
| 20260502115340 | 74 | 315 | 5.2 | 0.0 | 0.00 | 0.00 | 0.00 | 46 | 1061.7 |
| 20260502115235 | 74 | 292 | 4.3 | 0.0 | 0.00 | 0.00 | 0.00 | 47 | 1061.6 |
| 20260502115123 | 74 | 292 | 4.3 | 0.0 | 0.00 | 0.00 | 0.00 | 46 | 1061.6 |
| 20260502115017 | 73 | 270 | 5.2 | 0.0 | 0.00 | 0.00 | 0.00 | 46 | 1061.6 |
| 20260502114906 | 73 | 247 | 6.1 | 0.0 | 0.00 | 0.00 | 0.00 | 46 | 1061.7 |
| 20260502114759 | 73 | 315 | 4.3 | 0.0 | 0.00 | 0.00 | 0.00 | 46 | 1061.7 |
| 20260502114647 | 73 | 315 | 4.3 | 0.0 | 0.00 | 0.00 | 0.00 | 46 | 1061.7 |
| 20260502114540 | 73 | 292 | 5.2 | 0.0 | 0.00 | 0.00 | 0.00 | 46 | 1061.7 |
| 20260502114425 | 73 | 292 | 5.2 | 0.0 | 0.00 | 0.00 | 0.00 | 45 | 1061.8 |
| 20260502114305 | 73 | 315 | 7.8 | 0.0 | 0.00 | 0.00 | 0.00 | 45 | 1061.8 |
| 20260502114155 | 73 | 315 | 5.2 | 0.0 | 0.00 | 0.00 | 0.00 | 45 | 1061.8 |
| 20260502114050 | 73 | 270 | 7.0 | 0.0 | 0.00 | 0.00 | 0.00 | 45 | 1061.8 |
| 20260502113943 | 73 | 315 | 1.7 | 0.0 | 0.00 | 0.00 | 0.00 | 45 | 1061.8 |
| 20260502113830 | 73 | 292 | 3.5 | 0.0 | 0.00 | 0.00 | 0.00 | 45 | 1061.8 |
| 20260502113726 | 72 | 315 | 3.5 | 0.0 | 0.00 | 0.00 | 0.00 | 46 | 1061.7 |
| 20260502113620 | 72 | 292 | 5.2 | 0.0 | 0.00 | 0.00 | 0.00 | 46 | 1061.8 |
| 20260502113510 | 72 | 292 | 1.7 | 0.0 | 0.00 | 0.00 | 0.00 | 46 | 1061.8 |
| 20260502113405 | 71 | 315 | 5.2 | 0.0 | 0.00 | 0.00 | 0.00 | 46 | 1061.8 |
| 20260502113252 | 71 | 292 | 4.3 | 0.0 | 0.00 | 0.00 | 0.00 | 46 | 1061.8 |
| 20260502113144 | 71 | 247 | 5.2 | 0.0 | 0.00 | 0.00 | 0.00 | 46 | 1061.8 |
| 20260502113034 | 71 | 270 | 2.6 | 0.0 | 0.00 | 0.00 | 0.00 | 46 | 1061.8 |
| 20260502112927 | 71 | 270 | 2.6 | 0.0 | 0.00 | 0.00 | 0.00 | 45 | 1061.7 |
| 20260502112805 | 71 | 292 | 6.1 | 0.0 | 0.00 | 0.00 | 0.00 | 45 | 1061.8 |
| 20260502112653 | 71 | 292 | 5.2 | 0.0 | 0.00 | 0.00 | 0.00 | 45 | 1061.8 |
| 20260502112547 | 72 | 270 | 5.2 | 0.0 | 0.00 | 0.00 | 0.00 | 45 | 1061.8 |
| 20260502112435 | 72 | 292 | 3.5 | 0.0 | 0.00 | 0.00 | 0.00 | 44 | 1061.8 |
| 20260502112309 | 73 | 292 | 3.5 | 0.0 | 0.00 | 0.00 | 0.00 | 43 | 1061.8 |
| 20260502112204 | 73 | 292 | 5.2 | 0.0 | 0.00 | 0.00 | 0.00 | 43 | 1061.8 |
| 20260502112057 | 74 | 315 | 1.7 | 0.0 | 0.00 | 0.00 | 0.00 | 43 | 1061.6 |
| 20260502111945 | 75 | 292 | 8.7 | 0.0 | 0.00 | 0.00 | 0.00 | 43 | 1061.8 |
| 20260502111833 | 75 | 292 | 4.3 | 0.0 | 0.00 | 0.00 | 0.00 | 41 | 1061.8 |
| 20260502111727 | 75 | 292 | 3.5 | 0.0 | 0.00 | 0.00 | 0.00 | 38 | 1061.8 |
| 20260502111622 | 75 | 270 | 0.0 | 0.0 | 0.00 | 0.00 | 0.00 | 38 | 1061.8 |
| 20260502111509 | 76 | 247 | 1.7 | 0.0 | 0.00 | 0.00 | 0.00 | 38 | 1061.8 |
| 20260502111357 | 76 | 292 | 1.7 | 0.0 | 0.00 | 0.00 | 0.00 | 38 | 1061.7 |
| 20260502111246 | 76 | 270 | 0.0 | 0.0 | 0.00 | 0.00 | 0.00 | 38 | 1061.8 |
| 20260502111138 | 77 | 247 | 0.0 | 0.0 | 0.00 | 0.00 | 0.00 | 37 | 1061.7 |
| 20260502111027 | 77 | 292 | 3.5 | 0.0 | 0.00 | 0.00 | 0.00 | 37 | 1061.7 |
| 20260502110921 | 78 | 247 | 0.0 | 0.0 | 0.00 | 0.00 | 0.00 | 37 | 1061.7 |
| 20260502110808 | 78 | 225 | 3.5 | 0.0 | 0.00 | 0.00 | 0.00 | 36 | 1061.7 |
| 20260502110658 | 78 | 225 | 0.0 | 0.0 | 0.00 | 0.00 | 0.00 | 36 | 1061.7 |
| 20260502110550 | 79 | 225 | 8.7 | 0.0 | 0.00 | 0.00 | 0.00 | 36 | 1061.7 |
| 20260502110430 | 79 | 225 | 2.6 | 0.0 | 0.00 | 0.00 | 0.00 | 36 | 1061.7 |
| 20260502110324 | 79 | 270 | 5.2 | 0.0 | 0.00 | 0.00 | 0.00 | 36 | 1061.6 |
| 20260502110213 | 79 | 180 | 3.5 | 0.0 | 0.00 | 0.00 | 0.00 | 36 | 1061.7 |
| 20260502110107 | 80 | 202 | 0.0 | 0.0 | 0.00 | 0.00 | 0.00 | 35 | 1061.6 |
| 20260502105933 | 80 | 247 | 6.1 | 0.0 | 0.00 | 0.00 | 0.00 | 34 | 1061.7 |
| 20260502105810 | 80 | 225 | 1.7 | 0.0 | 0.00 | 0.00 | 0.00 | 34 | 1061.7 |
| 20260502105657 | 81 | 270 | 3.5 | 0.0 | 0.00 | 0.00 | 0.00 | 34 | 1061.7 |
| 20260502105552 | 81 | 180 | 2.6 | 0.0 | 0.00 | 0.00 | 0.00 | 34 | 1061.6 |
| 20260502105430 | 81 | 225 | 3.5 | 0.0 | 0.00 | 0.00 | 0.00 | 34 | 1061.7 |
| 20260502105309 | 80 | 270 | 4.3 | 0.0 | 0.00 | 0.00 | 0.00 | 34 | 1061.8 |
| 20260502105158 | 80 | 225 | 4.3 | 0.0 | 0.00 | 0.00 | 0.00 | 34 | 1061.7 |
| 20260502105052 | 80 | 247 | 4.3 | 0.0 | 0.00 | 0.00 | 0.00 | 34 | 1061.7 |
| 20260502104939 | 80 | 202 | 7.0 | 0.0 | 0.00 | 0.00 | 0.00 | 35 | 1061.6 |
| 20260502104819 | 80 | 202 | 8.7 | 0.0 | 0.00 | 0.00 | 0.00 | 36 | 1061.7 |
| 20260502104707 | 80 | 180 | 4.3 | 0.0 | 0.00 | 0.00 | 0.00 | 36 | 1061.7 |
| 20260502104600 | 79 | 225 | 2.6 | 0.0 | 0.00 | 0.00 | 0.00 | 38 | 1061.7 |
| 20260502104439 | 78 | 180 | 3.5 | 0.0 | 0.00 | 0.00 | 0.00 | 38 | 1061.7 |
| 20260502104327 | 78 | 202 | 4.3 | 0.0 | 0.00 | 0.00 | 0.00 | 37 | 1061.7 |
| 20260502104221 | 78 | 180 | 7.0 | 0.0 | 0.00 | 0.00 | 0.00 | 38 | 1061.7 |
| 20260502104052 | 77 | 202 | 7.0 | 0.0 | 0.00 | 0.00 | 0.00 | 38 | 1061.7 |
| 20260502103930 | 77 | 202 | 0.0 | 0.0 | 0.00 | 0.00 | 0.00 | 38 | 1061.7 |
| 20260502103819 | 77 | 157 | 0.0 | 0.0 | 0.00 | 0.00 | 0.00 | 38 | 1061.7 |
| 20260502103706 | 77 | 202 | 4.3 | 0.0 | 0.00 | 0.00 | 0.00 | 38 | 1061.7 |
| 20260502103601 | 77 | 202 | 0.0 | 0.0 | 0.00 | 0.00 | 0.00 | 38 | 1061.8 |
| 20260502103456 | 77 | 202 | 2.6 | 0.0 | 0.00 | 0.00 | 0.00 | 37 | 1061.7 |
| 20260502103350 | 77 | 202 | 1.7 | 0.0 | 0.00 | 0.00 | 0.00 | 37 | 1061.7 |
| 20260502103237 | 77 | 180 | 7.0 | 0.0 | 0.00 | 0.00 | 0.00 | 37 | 1061.8 |
| 20260502103124 | 78 | 225 | 7.0 | 0.0 | 0.00 | 0.00 | 0.00 | 36 | 1061.7 |
| 20260502102957 | 78 | 180 | 7.0 | 0.0 | 0.00 | 0.00 | 0.00 | 36 | 1061.8 |
| 20260502102851 | 79 | 202 | 6.1 | 0.0 | 0.00 | 0.00 | 0.00 | 36 | 1061.8 |
| 20260502102746 | 79 | 247 | 4.3 | 0.0 | 0.00 | 0.00 | 0.00 | 36 | 1061.8 |
| 20260502102633 | 79 | 157 | 0.9 | 0.0 | 0.00 | 0.00 | 0.00 | 35 | 1061.7 |
| 20260502102515 | 80 | 180 | 3.5 | 0.0 | 0.00 | 0.00 | 0.00 | 35 | 1061.8 |
| 20260502102409 | 80 | 202 | 2.6 | 0.0 | 0.00 | 0.00 | 0.00 | 35 | 1061.8 |
| 20260502102256 | 80 | 157 | 3.5 | 0.0 | 0.00 | 0.00 | 0.00 | 36 | 1061.7 |
| 20260502102144 | 80 | 180 | 2.6 | 0.0 | 0.00 | 0.00 | 0.00 | 36 | 1061.8 |
| 20260502102040 | 80 | 157 | 1.7 | 0.0 | 0.00 | 0.00 | 0.00 | 36 | 1061.8 |
| 20260502101934 | 80 | 180 | 1.7 | 0.0 | 0.00 | 0.00 | 0.00 | 35 | 1061.7 |
| 20260502101829 | 80 | 180 | 4.3 | 0.0 | 0.00 | 0.00 | 0.00 | 36 | 1061.7 |
| 20260502101725 | 79 | 135 | 2.6 | 0.0 | 0.00 | 0.00 | 0.00 | 36 | 1061.8 |
| 20260502101617 | 79 | 157 | 4.3 | 0.0 | 0.00 | 0.00 | 0.00 | 37 | 1061.8 |
| 20260502101458 | 79 | 202 | 6.1 | 0.0 | 0.00 | 0.00 | 0.00 | 36 | 1061.8 |
| 20260502101355 | 79 | 180 | 3.5 | 0.0 | 0.00 | 0.00 | 0.00 | 37 | 1061.7 |
| 20260502101249 | 78 | 202 | 0.0 | 0.0 | 0.00 | 0.00 | 0.00 | 38 | 1061.6 |
| 20260502101144 | 78 | 225 | 0.0 | 0.0 | 0.00 | 0.00 | 0.00 | 37 | 1061.7 |
| 20260502101037 | 78 | 202 | 7.8 | 0.0 | 0.00 | 0.00 | 0.00 | 37 | 1061.7 |
| 20260502100925 | 78 | 180 | 5.2 | 0.0 | 0.00 | 0.00 | 0.00 | 37 | 1061.8 |
| 20260502100819 | 78 | 157 | 0.0 | 0.0 | 0.00 | 0.00 | 0.00 | 38 | 1061.9 |
| 20260502100706 | 78 | 157 | 3.5 | 0.0 | 0.00 | 0.00 | 0.00 | 37 | 1061.9 |
| 20260502100554 | 78 | 180 | 4.3 | 0.0 | 0.00 | 0.00 | 0.00 | 37 | 1062.0 |
| 20260502100442 | 78 | 180 | 5.2 | 0.0 | 0.00 | 0.00 | 0.00 | 37 | 1062.0 |
| 20260502100336 | 78 | 180 | 0.9 | 0.0 | 0.00 | 0.00 | 0.00 | 37 | 1062.0 |
| 20260502100230 | 78 | 157 | 1.7 | 0.0 | 0.00 | 0.00 | 0.00 | 37 | 1062.0 |
| 20260502100110 | 78 | 157 | 4.3 | 0.0 | 0.00 | 0.00 | 0.00 | 36 | 1062.1 |
| 20260502091452 | 78 | 157 | 5.2 | 0.0 | 0.00 | 0.00 | 0.00 | 38 | 1062.3 |
| 20260502091338 | 78 | 157 | 5.2 | 0.0 | 0.00 | 0.00 | 0.00 | 38 | 1062.3 |
| 20260502091227 | 78 | 180 | 4.3 | 0.0 | 0.00 | 0.00 | 0.00 | 38 | 1062.3 |
| 20260502091120 | 78 | 180 | 2.6 | 0.0 | 0.00 | 0.00 | 0.00 | 38 | 1062.3 |
| 20260502091000 | 78 | 157 | 3.5 | 0.0 | 0.00 | 0.00 | 0.00 | 38 | 1062.3 |
| 20260502090857 | 77 | 202 | 5.2 | 0.0 | 0.00 | 0.00 | 0.00 | 39 | 1062.3 |
| 20260502090750 | 77 | 202 | 8.7 | 0.0 | 0.00 | 0.00 | 0.00 | 39 | 1062.3 |
| 20260502090645 | 77 | 157 | 5.2 | 0.0 | 0.00 | 0.00 | 0.00 | 38 | 1062.3 |
| 20260502090540 | 77 | 157 | 6.1 | 0.0 | 0.00 | 0.00 | 0.00 | 38 | 1062.3 |
| 20260502090435 | 77 | 157 | 7.8 | 0.0 | 0.00 | 0.00 | 0.00 | 38 | 1062.3 |
| 20260502090329 | 78 | 157 | 7.8 | 0.0 | 0.00 | 0.00 | 0.00 | 37 | 1062.4 |
| 20260502090209 | 78 | 135 | 5.2 | 0.0 | 0.00 | 0.00 | 0.00 | 37 | 1062.4 |
| 20260502071441 | 70 | 180 | 3.5 | 0.0 | 0.00 | 0.00 | 0.00 | 47 | 1062.9 |
| 20260502071319 | 70 | 157 | 8.7 | 0.0 | 0.00 | 0.00 | 0.00 | 48 | 1062.8 |
| 20260502071206 | 70 | 180 | 5.2 | 0.0 | 0.00 | 0.00 | 0.00 | 47 | 1062.8 |
| 20260502071055 | 70 | 135 | 3.5 | 0.0 | 0.00 | 0.00 | 0.00 | 47 | 1062.8 |
| 20260502070948 | 69 | 157 | 4.3 | 0.0 | 0.00 | 0.00 | 0.00 | 48 | 1062.8 |
| 20260502070836 | 69 | 180 | 2.6 | 0.0 | 0.00 | 0.00 | 0.00 | 48 | 1062.9 |
| 20260502070730 | 69 | 157 | 7.0 | 0.0 | 0.00 | 0.00 | 0.00 | 48 | 1062.9 |
| 20260502070625 | 69 | 157 | 4.3 | 0.0 | 0.00 | 0.00 | 0.00 | 47 | 1062.8 |
| 20260502070503 | 69 | 135 | 1.7 | 0.0 | 0.00 | 0.00 | 0.00 | 47 | 1062.9 |
| 20260502070350 | 69 | 157 | 6.1 | 0.0 | 0.00 | 0.00 | 0.00 | 50 | 1062.8 |
| 20260502070222 | 68 | 157 | 0.0 | 0.0 | 0.00 | 0.00 | 0.00 | 50 | 1062.9 |
| 20260502070119 | 68 | 202 | 3.5 | 0.0 | 0.00 | 0.00 | 0.00 | 50 | 1062.9 |
| 20260502070013 | 68 | 202 | 3.5 | 0.0 | 0.00 | 0.00 | 0.00 | 52 | 1062.9 |
| 20260502065859 | 67 | 202 | 2.6 | 0.0 | 0.00 | 0.00 | 0.00 | 52 | 1062.9 |
| 20260502065753 | 67 | 157 | 4.3 | 0.0 | 0.00 | 0.00 | 0.00 | 52 | 1062.9 |
| 20260502065640 | 67 | 157 | 4.3 | 0.0 | 0.00 | 0.00 | 0.00 | 52 | 1062.9 |
| 20260502065518 | 66 | 157 | 5.2 | 0.0 | 0.00 | 0.00 | 0.00 | 52 | 1062.9 |
| 20260502065406 | 66 | 157 | 5.2 | 0.0 | 0.00 | 0.00 | 0.00 | 53 | 1062.9 |
| 20260502065252 | 66 | 202 | 5.2 | 0.0 | 0.00 | 0.00 | 0.00 | 54 | 1062.9 |
| 20260502065133 | 66 | 157 | 7.0 | 0.0 | 0.00 | 0.00 | 0.00 | 55 | 1062.9 |
| 20260502065019 | 65 | 157 | 5.2 | 0.0 | 0.00 | 0.00 | 0.00 | 55 | 1062.9 |
| 20260502064913 | 65 | 157 | 4.3 | 0.0 | 0.00 | 0.00 | 0.00 | 54 | 1062.8 |
| 20260502064759 | 65 | 202 | 6.1 | 0.0 | 0.00 | 0.00 | 0.00 | 54 | 1062.9 |
| 20260502064638 | 65 | 202 | 5.2 | 0.0 | 0.00 | 0.00 | 0.00 | 55 | 1062.8 |
| 20260502064518 | 65 | 157 | 3.5 | 0.0 | 0.00 | 0.00 | 0.00 | 54 | 1062.8 |
| 20260502064413 | 65 | 180 | 9.6 | 0.0 | 0.00 | 0.00 | 0.00 | 54 | 1062.9 |
| 20260502064307 | 65 | 157 | 3.5 | 0.0 | 0.00 | 0.00 | 0.00 | 55 | 1062.8 |
| 20260502064147 | 64 | 157 | 5.2 | 0.0 | 0.00 | 0.00 | 0.00 | 56 | 1062.8 |
| 20260502064041 | 64 | 157 | 5.2 | 0.0 | 0.00 | 0.00 | 0.00 | 55 | 1062.9 |
| 20260502063928 | 64 | 157 | 4.3 | 0.0 | 0.00 | 0.00 | 0.00 | 56 | 1062.9 |
| 20260502063814 | 64 | 180 | 4.3 | 0.0 | 0.00 | 0.00 | 0.00 | 55 | 1062.9 |
| 20260502063646 | 64 | 202 | 7.0 | 0.0 | 0.00 | 0.00 | 0.00 | 55 | 1063.0 |
| 20260502063533 | 64 | 157 | 7.8 | 0.0 | 0.00 | 0.00 | 0.00 | 56 | 1063.0 |
| 20260502063420 | 63 | 202 | 5.2 | 0.0 | 0.00 | 0.00 | 0.00 | 56 | 1063.0 |
| 20260502063307 | 63 | 180 | 6.1 | 0.0 | 0.00 | 0.00 | 0.00 | 56 | 1062.9 |
| 20260502063153 | 63 | 225 | 7.8 | 0.0 | 0.00 | 0.00 | 0.00 | 56 | 1062.9 |
| 20260502063039 | 63 | 157 | 6.1 | 0.0 | 0.00 | 0.00 | 0.00 | 56 | 1062.9 |
| 20260502062927 | 63 | 180 | 5.2 | 0.0 | 0.00 | 0.00 | 0.00 | 56 | 1062.9 |
| 20260502062816 | 63 | 180 | 6.1 | 0.0 | 0.00 | 0.00 | 0.00 | 56 | 1062.9 |
| 20260502062708 | 62 | 157 | 4.3 | 0.0 | 0.00 | 0.00 | 0.00 | 56 | 1062.9 |
| 20260502062547 | 62 | 135 | 5.2 | 0.0 | 0.00 | 0.00 | 0.00 | 56 | 1062.9 |
| 20260502062426 | 63 | 180 | 7.8 | 0.0 | 0.00 | 0.00 | 0.00 | 55 | 1062.9 |
| 20260502062306 | 63 | 180 | 8.7 | 0.0 | 0.00 | 0.00 | 0.00 | 56 | 1062.9 |
| 20260502062200 | 63 | 135 | 5.2 | 0.0 | 0.00 | 0.00 | 0.00 | 56 | 1062.9 |
| 20260502062038 | 62 | 180 | 3.5 | 0.0 | 0.00 | 0.00 | 0.00 | 56 | 1063.0 |
| 20260502061917 | 62 | 202 | 7.0 | 0.0 | 0.00 | 0.00 | 0.00 | 57 | 1062.9 |
| 20260502061749 | 62 | 180 | 5.2 | 0.0 | 0.00 | 0.00 | 0.00 | 57 | 1062.9 |
| 20260502061642 | 62 | 157 | 7.8 | 0.0 | 0.00 | 0.00 | 0.00 | 58 | 1062.9 |
| 20260502061530 | 62 | 157 | 5.2 | 0.0 | 0.00 | 0.00 | 0.00 | 58 | 1062.9 |
| 20260502061424 | 61 | 157 | 7.8 | 0.0 | 0.00 | 0.00 | 0.00 | 58 | 1062.9 |
| 20260502061303 | 61 | 180 | 4.3 | 0.0 | 0.00 | 0.00 | 0.00 | 58 | 1062.9 |
| 20260502061152 | 61 | 180 | 5.2 | 0.0 | 0.00 | 0.00 | 0.00 | 58 | 1063.0 |
| 20260502061046 | 61 | 157 | 7.8 | 0.0 | 0.00 | 0.00 | 0.00 | 58 | 1062.9 |
| 20260502060939 | 61 | 157 | 5.2 | 0.0 | 0.00 | 0.00 | 0.00 | 58 | 1062.9 |
| 20260502060825 | 61 | 157 | 2.6 | 0.0 | 0.00 | 0.00 | 0.00 | 58 | 1062.9 |
| 20260502060700 | 61 | 157 | 6.1 | 0.0 | 0.00 | 0.00 | 0.00 | 58 | 1063.0 |
| 20260502060552 | 61 | 157 | 8.7 | 0.0 | 0.00 | 0.00 | 0.00 | 58 | 1062.9 |
| 20260502060439 | 61 | 157 | 5.2 | 0.0 | 0.00 | 0.00 | 0.00 | 58 | 1062.9 |
| 20260502060334 | 60 | 180 | 7.8 | 0.0 | 0.00 | 0.00 | 0.00 | 59 | 1062.9 |
| 20260502060229 | 60 | 157 | 5.2 | 0.0 | 0.00 | 0.00 | 0.00 | 58 | 1063.0 |
| 20260502060107 | 60 | 157 | 7.0 | 0.0 | 0.00 | 0.00 | 0.00 | 58 | 1062.9 |
| 20260502055938 | 60 | 180 | 8.7 | 0.0 | 0.00 | 0.00 | 0.00 | 59 | 1063.0 |
| 20260502055817 | 60 | 180 | 3.5 | 0.0 | 0.00 | 0.00 | 0.00 | 59 | 1063.0 |
| 20260502055704 | 60 | 180 | 7.0 | 0.0 | 0.00 | 0.00 | 0.00 | 59 | 1063.0 |
| 20260502055553 | 60 | 157 | 7.8 | 0.0 | 0.00 | 0.00 | 0.00 | 59 | 1063.0 |
| 20260502055448 | 60 | 180 | 7.0 | 0.0 | 0.00 | 0.00 | 0.00 | 59 | 1063.0 |
| 20260502055340 | 60 | 202 | 5.2 | 0.0 | 0.00 | 0.00 | 0.00 | 59 | 1062.9 |
| 20260502055221 | 60 | 180 | 5.2 | 0.0 | 0.00 | 0.00 | 0.00 | 59 | 1063.0 |
| 20260502055117 | 59 | 157 | 3.5 | 0.0 | 0.00 | 0.00 | 0.00 | 59 | 1063.0 |
| 20260502055009 | 59 | 157 | 7.8 | 0.0 | 0.00 | 0.00 | 0.00 | 60 | 1063.1 |
| 20260502054857 | 59 | 135 | 3.5 | 0.0 | 0.00 | 0.00 | 0.00 | 60 | 1063.1 |
| 20260502054752 | 59 | 157 | 5.2 | 0.0 | 0.00 | 0.00 | 0.00 | 60 | 1063.0 |
| 20260502054646 | 59 | 157 | 6.1 | 0.0 | 0.00 | 0.00 | 0.00 | 60 | 1063.1 |
| 20260502054536 | 59 | 180 | 4.3 | 0.0 | 0.00 | 0.00 | 0.00 | 61 | 1063.0 |
| 20260502054430 | 59 | 157 | 4.3 | 0.0 | 0.00 | 0.00 | 0.00 | 61 | 1063.1 |
| 20260502054309 | 58 | 180 | 4.3 | 0.0 | 0.00 | 0.00 | 0.00 | 61 | 1063.1 |
| 20260502054202 | 58 | 157 | 7.0 | 0.0 | 0.00 | 0.00 | 0.00 | 61 | 1063.1 |
| 20260502054049 | 58 | 180 | 5.2 | 0.0 | 0.00 | 0.00 | 0.00 | 61 | 1063.1 |
| 20260502053944 | 58 | 180 | 7.0 | 0.0 | 0.00 | 0.00 | 0.00 | 61 | 1063.1 |
| 20260502053832 | 58 | 225 | 6.1 | 0.0 | 0.00 | 0.00 | 0.00 | 61 | 1063.2 |
| 20260502053710 | 58 | 180 | 7.0 | 0.0 | 0.00 | 0.00 | 0.00 | 62 | 1063.2 |
| 20260502053557 | 58 | 157 | 3.5 | 0.0 | 0.00 | 0.00 | 0.00 | 62 | 1063.2 |
| 20260502053451 | 57 | 180 | 5.2 | 0.0 | 0.00 | 0.00 | 0.00 | 63 | 1063.2 |
| 20260502053332 | 57 | 180 | 7.0 | 0.0 | 0.00 | 0.00 | 0.00 | 63 | 1063.2 |
| 20260502053225 | 57 | 180 | 5.2 | 0.0 | 0.00 | 0.00 | 0.00 | 62 | 1063.1 |
| 20260502053115 | 57 | 180 | 4.3 | 0.0 | 0.00 | 0.00 | 0.00 | 62 | 1063.2 |
| 20260502053008 | 57 | 180 | 6.1 | 0.0 | 0.00 | 0.00 | 0.00 | 62 | 1063.2 |
| 20260502052902 | 57 | 180 | 6.1 | 0.0 | 0.00 | 0.00 | 0.00 | 62 | 1063.2 |
| 20260502052740 | 57 | 202 | 7.0 | 0.0 | 0.00 | 0.00 | 0.00 | 62 | 1063.2 |
| 20260502052620 | 57 | 157 | 4.3 | 0.0 | 0.00 | 0.00 | 0.00 | 62 | 1063.2 |
| 20260502052506 | 57 | 180 | 7.0 | 0.0 | 0.00 | 0.00 | 0.00 | 63 | 1063.2 |
| 20260502052337 | 57 | 157 | 4.3 | 0.0 | 0.00 | 0.00 | 0.00 | 63 | 1063.1 |
| 20260502052224 | 57 | 180 | 8.7 | 0.0 | 0.00 | 0.00 | 0.00 | 63 | 1063.2 |
| 20260502052105 | 57 | 180 | 6.1 | 0.0 | 0.00 | 0.00 | 0.00 | 64 | 1063.1 |
| 20260502051957 | 56 | 157 | 7.8 | 0.0 | 0.00 | 0.00 | 0.00 | 64 | 1063.1 |
| 20260502051836 | 56 | 157 | 3.5 | 0.0 | 0.00 | 0.00 | 0.00 | 64 | 1063.2 |
| 20260502051725 | 56 | 157 | 8.7 | 0.0 | 0.00 | 0.00 | 0.00 | 64 | 1063.2 |
| 20260502051611 | 56 | 180 | 5.2 | 0.0 | 0.00 | 0.00 | 0.00 | 64 | 1063.1 |
| 20260502051504 | 56 | 157 | 4.3 | 0.0 | 0.00 | 0.00 | 0.00 | 64 | 1063.2 |
| 20260502051343 | 56 | 180 | 7.0 | 0.0 | 0.00 | 0.00 | 0.00 | 64 | 1063.2 |
| 20260502051229 | 56 | 157 | 6.1 | 0.0 | 0.00 | 0.00 | 0.00 | 64 | 1063.1 |
| 20260502051108 | 56 | 157 | 5.2 | 0.0 | 0.00 | 0.00 | 0.00 | 64 | 1063.3 |
| 20260502050954 | 56 | 180 | 7.0 | 0.0 | 0.00 | 0.00 | 0.00 | 64 | 1063.3 |
| 20260502050840 | 56 | 180 | 8.7 | 0.0 | 0.00 | 0.00 | 0.00 | 64 | 1063.4 |
| 20260502050718 | 56 | 180 | 5.2 | 0.0 | 0.00 | 0.00 | 0.00 | 64 | 1063.4 |
| 20260502050555 | 56 | 157 | 6.1 | 0.0 | 0.00 | 0.00 | 0.00 | 64 | 1063.3 |
| 20260502050445 | 56 | 157 | 5.2 | 0.0 | 0.00 | 0.00 | 0.00 | 65 | 1063.2 |
| 20260502050328 | 56 | 180 | 6.1 | 0.0 | 0.00 | 0.00 | 0.00 | 65 | 1063.3 |
| 20260502050217 | 56 | 180 | 4.3 | 0.0 | 0.00 | 0.00 | 0.00 | 65 | 1063.2 |
| 20260502050111 | 55 | 157 | 7.0 | 0.0 | 0.00 | 0.00 | 0.00 | 65 | 1063.2 |
| 20260502050006 | 56 | 180 | 5.2 | 0.0 | 0.00 | 0.00 | 0.00 | 65 | 1063.2 |
| 20260502045900 | 56 | 157 | 4.3 | 0.0 | 0.00 | 0.00 | 0.00 | 65 | 1063.2 |
| 20260502045757 | 56 | 157 | 6.1 | 0.0 | 0.00 | 0.00 | 0.00 | 65 | 1063.2 |
| 20260502045650 | 55 | 180 | 7.8 | 0.0 | 0.00 | 0.00 | 0.00 | 65 | 1063.2 |
| 20260502045545 | 55 | 180 | 5.2 | 0.0 | 0.00 | 0.00 | 0.00 | 65 | 1063.2 |
| 20260502045440 | 55 | 180 | 6.1 | 0.0 | 0.00 | 0.00 | 0.00 | 65 | 1063.2 |
| 20260502045327 | 55 | 180 | 7.8 | 0.0 | 0.00 | 0.00 | 0.00 | 65 | 1063.3 |
| 20260502045207 | 55 | 157 | 3.5 | 0.0 | 0.00 | 0.00 | 0.00 | 65 | 1063.2 |
| 20260502045045 | 55 | 157 | 6.1 | 0.0 | 0.00 | 0.00 | 0.00 | 65 | 1063.2 |
| 20260502044926 | 55 | 180 | 3.5 | 0.0 | 0.00 | 0.00 | 0.00 | 65 | 1063.2 |
| 20260502044819 | 55 | 180 | 5.2 | 0.0 | 0.00 | 0.00 | 0.00 | 65 | 1063.2 |
| 20260502044708 | 55 | 180 | 4.3 | 0.0 | 0.00 | 0.00 | 0.00 | 66 | 1063.1 |
| 20260502044555 | 55 | 180 | 5.2 | 0.0 | 0.00 | 0.00 | 0.00 | 66 | 1063.2 |
| 20260502044442 | 55 | 157 | 5.2 | 0.0 | 0.00 | 0.00 | 0.00 | 66 | 1063.3 |
| 20260502044335 | 55 | 157 | 0.0 | 0.0 | 0.00 | 0.00 | 0.00 | 66 | 1063.2 |
| 20260502044214 | 55 | 157 | 7.0 | 0.0 | 0.00 | 0.00 | 0.00 | 67 | 1063.3 |
| 20260502044109 | 54 | 180 | 4.3 | 0.0 | 0.00 | 0.00 | 0.00 | 67 | 1063.1 |
| 20260502043948 | 54 | 180 | 2.6 | 0.0 | 0.00 | 0.00 | 0.00 | 67 | 1063.2 |
| 20260502043833 | 54 | 180 | 2.6 | 0.0 | 0.00 | 0.00 | 0.00 | 68 | 1063.3 |
| 20260502043712 | 54 | 180 | 2.6 | 0.0 | 0.00 | 0.00 | 0.00 | 68 | 1063.2 |
| 20260502043551 | 54 | 180 | 0.0 | 0.0 | 0.00 | 0.00 | 0.00 | 68 | 1063.2 |
| 20260502043439 | 53 | 180 | 7.0 | 0.0 | 0.00 | 0.00 | 0.00 | 69 | 1063.3 |
| 20260502043326 | 53 | 180 | 2.6 | 0.0 | 0.00 | 0.00 | 0.00 | 69 | 1063.2 |
| 20260502043204 | 53 | 157 | 5.2 | 0.0 | 0.00 | 0.00 | 0.00 | 70 | 1063.2 |
| 20260502043050 | 53 | 180 | 2.6 | 0.0 | 0.00 | 0.00 | 0.00 | 70 | 1063.2 |
| 20260502042931 | 53 | 180 | 0.0 | 0.0 | 0.00 | 0.00 | 0.00 | 70 | 1063.2 |
| 20260502042814 | 52 | 180 | 5.2 | 0.0 | 0.00 | 0.00 | 0.00 | 70 | 1063.2 |
| 20260502042701 | 52 | 157 | 0.0 | 0.0 | 0.00 | 0.00 | 0.00 | 71 | 1063.1 |
| 20260502042554 | 52 | 180 | 5.2 | 0.0 | 0.00 | 0.00 | 0.00 | 71 | 1063.2 |
| 20260502042442 | 52 | 180 | 0.0 | 0.0 | 0.00 | 0.00 | 0.00 | 71 | 1063.1 |
| 20260502042328 | 52 | 180 | 7.0 | 0.0 | 0.00 | 0.00 | 0.00 | 71 | 1063.2 |
| 20260502042213 | 52 | 180 | 5.2 | 0.0 | 0.00 | 0.00 | 0.00 | 71 | 1063.2 |
| 20260502042058 | 52 | 180 | 4.3 | 0.0 | 0.00 | 0.00 | 0.00 | 71 | 1063.1 |
| 20260502041950 | 52 | 180 | 3.5 | 0.0 | 0.00 | 0.00 | 0.00 | 71 | 1063.2 |
| 20260502041821 | 52 | 157 | 6.1 | 0.0 | 0.00 | 0.00 | 0.00 | 71 | 1063.3 |
| 20260502041707 | 52 | 180 | 5.2 | 0.0 | 0.00 | 0.00 | 0.00 | 71 | 1063.2 |
| 20260502041554 | 52 | 202 | 6.1 | 0.0 | 0.00 | 0.00 | 0.00 | 71 | 1063.3 |
| 20260502041449 | 52 | 180 | 4.3 | 0.0 | 0.00 | 0.00 | 0.00 | 71 | 1063.3 |
| 20260502041340 | 52 | 157 | 5.2 | 0.0 | 0.00 | 0.00 | 0.00 | 71 | 1063.3 |
| 20260502041220 | 52 | 202 | 4.3 | 0.0 | 0.00 | 0.00 | 0.00 | 71 | 1063.3 |
| 20260502041113 | 52 | 135 | 5.2 | 0.0 | 0.00 | 0.00 | 0.00 | 71 | 1063.4 |
| 20260502040959 | 52 | 180 | 6.1 | 0.0 | 0.00 | 0.00 | 0.00 | 71 | 1063.3 |
| 20260502040845 | 52 | 180 | 4.3 | 0.0 | 0.00 | 0.00 | 0.00 | 71 | 1063.2 |
| 20260502040741 | 52 | 180 | 5.2 | 0.0 | 0.00 | 0.00 | 0.00 | 71 | 1063.3 |
| 20260502040634 | 52 | 180 | 5.2 | 0.0 | 0.00 | 0.00 | 0.00 | 71 | 1063.4 |
| 20260502040525 | 52 | 157 | 3.5 | 0.0 | 0.00 | 0.00 | 0.00 | 71 | 1063.3 |
| 20260502040414 | 52 | 157 | 5.2 | 0.0 | 0.00 | 0.00 | 0.00 | 71 | 1063.3 |
| 20260502040258 | 52 | 180 | 6.1 | 0.0 | 0.00 | 0.00 | 0.00 | 71 | 1063.4 |
| 20260502040144 | 52 | 157 | 5.2 | 0.0 | 0.00 | 0.00 | 0.00 | 71 | 1063.4 |
| 20260502040022 | 52 | 157 | 4.3 | 0.0 | 0.00 | 0.00 | 0.00 | 71 | 1063.3 |
| 20260502035909 | 52 | 157 | 5.2 | 0.0 | 0.00 | 0.00 | 0.00 | 71 | 1063.4 |
| 20260502035756 | 52 | 180 | 5.2 | 0.0 | 0.00 | 0.00 | 0.00 | 71 | 1063.4 |
| 20260502035649 | 52 | 180 | 2.6 | 0.0 | 0.00 | 0.00 | 0.00 | 71 | 1063.4 |
| 20260502035535 | 52 | 157 | 6.1 | 0.0 | 0.00 | 0.00 | 0.00 | 71 | 1063.4 |
| 20260502035415 | 52 | 180 | 5.2 | 0.0 | 0.00 | 0.00 | 0.00 | 71 | 1063.4 |
| 20260502035307 | 52 | 157 | 5.2 | 0.0 | 0.00 | 0.00 | 0.00 | 71 | 1063.5 |
| 20260502035152 | 52 | 157 | 5.2 | 0.0 | 0.00 | 0.00 | 0.00 | 71 | 1063.5 |
| 20260502035038 | 52 | 157 | 4.3 | 0.0 | 0.00 | 0.00 | 0.00 | 71 | 1063.5 |
| 20260502034916 | 52 | 157 | 5.2 | 0.0 | 0.00 | 0.00 | 0.00 | 71 | 1063.5 |
| 20260502034802 | 52 | 157 | 0.0 | 0.0 | 0.00 | 0.00 | 0.00 | 71 | 1063.5 |
| 20260502034647 | 52 | 157 | 5.2 | 0.0 | 0.00 | 0.00 | 0.00 | 71 | 1063.6 |
| 20260502034524 | 52 | 180 | 3.5 | 0.0 | 0.00 | 0.00 | 0.00 | 70 | 1063.5 |
| 20260502034410 | 52 | 180 | 4.3 | 0.0 | 0.00 | 0.00 | 0.00 | 70 | 1063.5 |
| 20260502034250 | 52 | 180 | 5.2 | 0.0 | 0.00 | 0.00 | 0.00 | 70 | 1063.5 |
| 20260502034136 | 52 | 157 | 5.2 | 0.0 | 0.00 | 0.00 | 0.00 | 71 | 1063.5 |
| 20260502034028 | 52 | 157 | 1.7 | 0.0 | 0.00 | 0.00 | 0.00 | 71 | 1063.5 |
| 20260502033914 | 52 | 157 | 5.2 | 0.0 | 0.00 | 0.00 | 0.00 | 71 | 1063.6 |
| 20260502033806 | 52 | 157 | 4.3 | 0.0 | 0.00 | 0.00 | 0.00 | 71 | 1063.5 |
| 20260502033646 | 52 | 157 | 5.2 | 0.0 | 0.00 | 0.00 | 0.00 | 71 | 1063.5 |
| 20260502033531 | 52 | 157 | 3.5 | 0.0 | 0.00 | 0.00 | 0.00 | 71 | 1063.5 |
| 20260502033417 | 52 | 180 | 7.8 | 0.0 | 0.00 | 0.00 | 0.00 | 71 | 1063.6 |
| 20260502033311 | 52 | 157 | 6.1 | 0.0 | 0.00 | 0.00 | 0.00 | 71 | 1063.5 |
| 20260502033204 | 52 | 157 | 5.2 | 0.0 | 0.00 | 0.00 | 0.00 | 71 | 1063.6 |
| 20260502033035 | 52 | 157 | 4.3 | 0.0 | 0.00 | 0.00 | 0.00 | 71 | 1063.5 |
| 20260502032928 | 52 | 180 | 5.2 | 0.0 | 0.00 | 0.00 | 0.00 | 71 | 1063.6 |
| 20260502032814 | 52 | 157 | 5.2 | 0.0 | 0.00 | 0.00 | 0.00 | 71 | 1063.5 |
| 20260502032707 | 52 | 157 | 4.3 | 0.0 | 0.00 | 0.00 | 0.00 | 71 | 1063.5 |
| 20260502032553 | 52 | 157 | 5.2 | 0.0 | 0.00 | 0.00 | 0.00 | 71 | 1063.5 |
| 20260502032431 | 52 | 157 | 4.3 | 0.0 | 0.00 | 0.00 | 0.00 | 71 | 1063.6 |
| 20260502032317 | 52 | 180 | 5.2 | 0.0 | 0.00 | 0.00 | 0.00 | 71 | 1063.6 |
| 20260502032202 | 52 | 157 | 2.6 | 0.0 | 0.00 | 0.00 | 0.00 | 71 | 1063.6 |
| 20260502032043 | 52 | 157 | 2.6 | 0.0 | 0.00 | 0.00 | 0.00 | 71 | 1063.6 |
| 20260502031936 | 52 | 157 | 3.5 | 0.0 | 0.00 | 0.00 | 0.00 | 71 | 1063.5 |
| 20260502031822 | 52 | 157 | 3.5 | 0.0 | 0.00 | 0.00 | 0.00 | 71 | 1063.6 |
| 20260502031711 | 52 | 180 | 6.1 | 0.0 | 0.00 | 0.00 | 0.00 | 71 | 1063.5 |
| 20260502031602 | 52 | 180 | 1.7 | 0.0 | 0.00 | 0.00 | 0.00 | 71 | 1063.6 |
| 20260502031450 | 52 | 157 | 6.1 | 0.0 | 0.00 | 0.00 | 0.00 | 71 | 1063.6 |
| 20260502031344 | 52 | 157 | 2.6 | 0.0 | 0.00 | 0.00 | 0.00 | 71 | 1063.6 |
| 20260502031223 | 52 | 157 | 4.3 | 0.0 | 0.00 | 0.00 | 0.00 | 71 | 1063.6 |
| 20260502031118 | 52 | 157 | 3.5 | 0.0 | 0.00 | 0.00 | 0.00 | 71 | 1063.6 |
| 20260502031011 | 52 | 180 | 0.0 | 0.0 | 0.00 | 0.00 | 0.00 | 71 | 1063.7 |
| 20260502030906 | 52 | 180 | 2.6 | 0.0 | 0.00 | 0.00 | 0.00 | 71 | 1063.6 |
| 20260502030759 | 52 | 157 | 4.3 | 0.0 | 0.00 | 0.00 | 0.00 | 71 | 1063.6 |
| 20260502030653 | 52 | 180 | 3.5 | 0.0 | 0.00 | 0.00 | 0.00 | 71 | 1063.6 |
| 20260502030540 | 52 | 157 | 6.1 | 0.0 | 0.00 | 0.00 | 0.00 | 71 | 1063.6 |
| 20260502030417 | 52 | 157 | 2.6 | 0.0 | 0.00 | 0.00 | 0.00 | 71 | 1063.6 |
| 20260502030303 | 52 | 157 | 4.3 | 0.0 | 0.00 | 0.00 | 0.00 | 71 | 1063.7 |
| 20260502030142 | 52 | 157 | 4.3 | 0.0 | 0.00 | 0.00 | 0.00 | 71 | 1063.7 |
| 20260502030027 | 52 | 157 | 4.3 | 0.0 | 0.00 | 0.00 | 0.00 | 71 | 1063.8 |
| 20260502025913 | 52 | 157 | 4.3 | 0.0 | 0.00 | 0.00 | 0.00 | 71 | 1063.8 |
| 20260502025808 | 52 | 157 | 4.3 | 0.0 | 0.00 | 0.00 | 0.00 | 71 | 1063.8 |
| 20260502025701 | 52 | 180 | 3.5 | 0.0 | 0.00 | 0.00 | 0.00 | 71 | 1063.8 |
| 20260502025548 | 52 | 157 | 3.5 | 0.0 | 0.00 | 0.00 | 0.00 | 71 | 1063.8 |
| 20260502025441 | 52 | 157 | 0.0 | 0.0 | 0.00 | 0.00 | 0.00 | 71 | 1063.8 |
| 20260502025321 | 52 | 157 | 4.3 | 0.0 | 0.00 | 0.00 | 0.00 | 71 | 1063.7 |
| 20260502025212 | 52 | 157 | 0.0 | 0.0 | 0.00 | 0.00 | 0.00 | 71 | 1063.9 |
| 20260502025059 | 52 | 180 | 3.5 | 0.0 | 0.00 | 0.00 | 0.00 | 71 | 1063.8 |
| 20260502024952 | 52 | 157 | 3.5 | 0.0 | 0.00 | 0.00 | 0.00 | 71 | 1063.8 |
| 20260502024846 | 52 | 157 | 0.0 | 0.0 | 0.00 | 0.00 | 0.00 | 71 | 1063.8 |
| 20260502024724 | 52 | 157 | 0.0 | 0.0 | 0.00 | 0.00 | 0.00 | 71 | 1063.8 |
| 20260502024612 | 52 | 180 | 0.0 | 0.0 | 0.00 | 0.00 | 0.00 | 71 | 1063.7 |
| 20260502024503 | 52 | 180 | 4.3 | 0.0 | 0.00 | 0.00 | 0.00 | 71 | 1063.9 |
| 20260502024348 | 52 | 157 | 3.5 | 0.0 | 0.00 | 0.00 | 0.00 | 71 | 1064.0 |
| 20260502024229 | 52 | 157 | 0.0 | 0.0 | 0.00 | 0.00 | 0.00 | 71 | 1063.9 |
| 20260502024120 | 52 | 157 | 0.0 | 0.0 | 0.00 | 0.00 | 0.00 | 71 | 1063.9 |
| 20260502023958 | 52 | 157 | 0.0 | 0.0 | 0.00 | 0.00 | 0.00 | 71 | 1063.8 |
| 20260502023844 | 52 | 157 | 3.5 | 0.0 | 0.00 | 0.00 | 0.00 | 71 | 1063.9 |
| 20260502023721 | 52 | 157 | 0.0 | 0.0 | 0.00 | 0.00 | 0.00 | 71 | 1063.9 |
| 20260502023607 | 52 | 157 | 3.5 | 0.0 | 0.00 | 0.00 | 0.00 | 71 | 1064.0 |
| 20260502023455 | 52 | 157 | 0.0 | 0.0 | 0.00 | 0.00 | 0.00 | 71 | 1064.0 |
| 20260502023339 | 52 | 180 | 0.0 | 0.0 | 0.00 | 0.00 | 0.00 | 70 | 1064.0 |
| 20260502023224 | 52 | 157 | 4.3 | 0.0 | 0.00 | 0.00 | 0.00 | 70 | 1064.0 |
| 20260502023110 | 52 | 202 | 5.2 | 0.0 | 0.00 | 0.00 | 0.00 | 70 | 1064.0 |
| 20260502023004 | 52 | 157 | 0.0 | 0.0 | 0.00 | 0.00 | 0.00 | 70 | 1064.0 |
| 20260502022849 | 52 | 157 | 4.3 | 0.0 | 0.00 | 0.00 | 0.00 | 70 | 1064.1 |
| 20260502022727 | 52 | 180 | 0.0 | 0.0 | 0.00 | 0.00 | 0.00 | 70 | 1064.1 |
| 20260502022605 | 52 | 157 | 0.0 | 0.0 | 0.00 | 0.00 | 0.00 | 70 | 1064.1 |
| 20260502022453 | 52 | 157 | 0.0 | 0.0 | 0.00 | 0.00 | 0.00 | 70 | 1064.2 |
| 20260502022324 | 52 | 157 | 0.0 | 0.0 | 0.00 | 0.00 | 0.00 | 70 | 1064.1 |
| 20260502022210 | 52 | 180 | 0.0 | 0.0 | 0.00 | 0.00 | 0.00 | 70 | 1064.1 |
| 20260502022052 | 52 | 180 | 0.0 | 0.0 | 0.00 | 0.00 | 0.00 | 70 | 1064.2 |
| 20260502021912 | 52 | 180 | 0.0 | 0.0 | 0.00 | 0.00 | 0.00 | 70 | 1064.2 |
| 20260502021758 | 52 | 180 | 3.5 | 0.0 | 0.00 | 0.00 | 0.00 | 70 | 1064.2 |
| 20260502021653 | 52 | 157 | 0.0 | 0.0 | 0.00 | 0.00 | 0.00 | 70 | 1064.1 |
| 20260502021545 | 52 | 157 | 0.0 | 0.0 | 0.00 | 0.00 | 0.00 | 70 | 1064.1 |
| 20260502021425 | 53 | 157 | 2.6 | 0.0 | 0.00 | 0.00 | 0.00 | 70 | 1064.2 |
| 20260502021320 | 53 | 157 | 0.0 | 0.0 | 0.00 | 0.00 | 0.00 | 70 | 1064.2 |
| 20260502021212 | 53 | 157 | 0.0 | 0.0 | 0.00 | 0.00 | 0.00 | 70 | 1064.2 |
| 20260502021049 | 53 | 180 | 0.0 | 0.0 | 0.00 | 0.00 | 0.00 | 70 | 1064.3 |
| 20260502020920 | 53 | 180 | 0.0 | 0.0 | 0.00 | 0.00 | 0.00 | 70 | 1064.3 |
| 20260502020807 | 53 | 180 | 3.5 | 0.0 | 0.00 | 0.00 | 0.00 | 70 | 1064.4 |
| 20260502020701 | 53 | 180 | 0.0 | 0.0 | 0.00 | 0.00 | 0.00 | 70 | 1064.4 |
| 20260502020545 | 53 | 180 | 3.5 | 0.0 | 0.00 | 0.00 | 0.00 | 70 | 1064.4 |
| 20260502020431 | 53 | 157 | 3.5 | 0.0 | 0.00 | 0.00 | 0.00 | 70 | 1064.4 |
| 20260502020320 | 53 | 157 | 4.3 | 0.0 | 0.00 | 0.00 | 0.00 | 70 | 1064.4 |
| 20260502020212 | 53 | 180 | 0.0 | 0.0 | 0.00 | 0.00 | 0.00 | 70 | 1064.4 |
| 20260502020059 | 53 | 157 | 0.0 | 0.0 | 0.00 | 0.00 | 0.00 | 70 | 1064.4 |
| 20260502015946 | 53 | 157 | 0.0 | 0.0 | 0.00 | 0.00 | 0.00 | 70 | 1064.4 |
| 20260502015843 | 53 | 157 | 4.3 | 0.0 | 0.00 | 0.00 | 0.00 | 70 | 1064.4 |
| 20260502015736 | 53 | 157 | 4.3 | 0.0 | 0.00 | 0.00 | 0.00 | 70 | 1064.3 |
| 20260502015631 | 53 | 180 | 0.0 | 0.0 | 0.00 | 0.00 | 0.00 | 70 | 1064.4 |
| 20260502015509 | 53 | 180 | 3.5 | 0.0 | 0.00 | 0.00 | 0.00 | 70 | 1064.4 |
| 20260502015357 | 53 | 180 | 0.0 | 0.0 | 0.00 | 0.00 | 0.00 | 70 | 1064.4 |
| 20260502015237 | 53 | 157 | 0.0 | 0.0 | 0.00 | 0.00 | 0.00 | 70 | 1064.4 |
| 20260502015121 | 53 | 157 | 0.0 | 0.0 | 0.00 | 0.00 | 0.00 | 70 | 1064.4 |
| 20260502015000 | 53 | 157 | 0.0 | 0.0 | 0.00 | 0.00 | 0.00 | 70 | 1064.4 |
| 20260502014847 | 53 | 157 | 1.7 | 0.0 | 0.00 | 0.00 | 0.00 | 69 | 1064.4 |
| 20260502014727 | 53 | 157 | 0.0 | 0.0 | 0.00 | 0.00 | 0.00 | 69 | 1064.4 |
| 20260502014621 | 53 | 202 | 3.5 | 0.0 | 0.00 | 0.00 | 0.00 | 70 | 1064.4 |
| 20260502014507 | 53 | 157 | 0.0 | 0.0 | 0.00 | 0.00 | 0.00 | 69 | 1064.4 |
| 20260502014338 | 53 | 180 | 0.0 | 0.0 | 0.00 | 0.00 | 0.00 | 69 | 1064.5 |
| 20260502014226 | 53 | 157 | 0.0 | 0.0 | 0.00 | 0.00 | 0.00 | 69 | 1064.5 |
| 20260502014113 | 53 | 180 | 4.3 | 0.0 | 0.00 | 0.00 | 0.00 | 69 | 1064.5 |
| 20260502014008 | 53 | 157 | 5.2 | 0.0 | 0.00 | 0.00 | 0.00 | 69 | 1064.5 |
| 20260502013856 | 53 | 157 | 4.3 | 0.0 | 0.00 | 0.00 | 0.00 | 69 | 1064.5 |
| 20260502013750 | 53 | 157 | 0.0 | 0.0 | 0.00 | 0.00 | 0.00 | 69 | 1064.6 |
| 20260502013646 | 53 | 157 | 0.0 | 0.0 | 0.00 | 0.00 | 0.00 | 69 | 1064.6 |
| 20260502013539 | 53 | 180 | 0.0 | 0.0 | 0.00 | 0.00 | 0.00 | 69 | 1064.5 |
| 20260502013426 | 53 | 157 | 4.3 | 0.0 | 0.00 | 0.00 | 0.00 | 69 | 1064.6 |
| 20260502013314 | 53 | 157 | 3.5 | 0.0 | 0.00 | 0.00 | 0.00 | 68 | 1064.6 |
| 20260502013200 | 53 | 157 | 0.0 | 0.0 | 0.00 | 0.00 | 0.00 | 68 | 1064.6 |
| 20260502013046 | 53 | 157 | 0.0 | 0.0 | 0.00 | 0.00 | 0.00 | 68 | 1064.6 |
| 20260502012925 | 54 | 157 | 0.0 | 0.0 | 0.00 | 0.00 | 0.00 | 68 | 1064.6 |
| 20260502012815 | 54 | 157 | 0.0 | 0.0 | 0.00 | 0.00 | 0.00 | 68 | 1064.7 |
| 20260502012709 | 54 | 157 | 0.0 | 0.0 | 0.00 | 0.00 | 0.00 | 68 | 1064.7 |
| 20260502012603 | 54 | 157 | 0.0 | 0.0 | 0.00 | 0.00 | 0.00 | 68 | 1064.7 |
| 20260502012500 | 54 | 157 | 0.0 | 0.0 | 0.00 | 0.00 | 0.00 | 68 | 1064.8 |
| 20260502012352 | 54 | 157 | 0.0 | 0.0 | 0.00 | 0.00 | 0.00 | 68 | 1064.7 |
| 20260502012242 | 54 | 180 | 3.5 | 0.0 | 0.00 | 0.00 | 0.00 | 68 | 1064.8 |
| 20260502012135 | 54 | 180 | 0.0 | 0.0 | 0.00 | 0.00 | 0.00 | 68 | 1064.9 |
| 20260502012013 | 54 | 157 | 3.5 | 0.0 | 0.00 | 0.00 | 0.00 | 67 | 1064.8 |
| 20260502011902 | 54 | 180 | 3.5 | 0.0 | 0.00 | 0.00 | 0.00 | 67 | 1064.7 |
| 20260502011754 | 54 | 157 | 4.3 | 0.0 | 0.00 | 0.00 | 0.00 | 67 | 1064.8 |
| 20260502011635 | 54 | 157 | 0.0 | 0.0 | 0.00 | 0.00 | 0.00 | 67 | 1064.9 |
| 20260502011529 | 54 | 157 | 1.7 | 0.0 | 0.00 | 0.00 | 0.00 | 67 | 1065.0 |
| 20260502011415 | 54 | 180 | 0.0 | 0.0 | 0.00 | 0.00 | 0.00 | 67 | 1064.9 |
| 20260502011304 | 54 | 180 | 5.2 | 0.0 | 0.00 | 0.00 | 0.00 | 67 | 1064.8 |
| 20260502011158 | 54 | 157 | 0.0 | 0.0 | 0.00 | 0.00 | 0.00 | 67 | 1064.9 |
| 20260502011045 | 54 | 157 | 0.0 | 0.0 | 0.00 | 0.00 | 0.00 | 66 | 1065.0 |
| 20260502010942 | 55 | 180 | 5.2 | 0.0 | 0.00 | 0.00 | 0.00 | 66 | 1064.9 |
| 20260502010834 | 55 | 157 | 1.7 | 0.0 | 0.00 | 0.00 | 0.00 | 67 | 1065.0 |
| 20260502010713 | 55 | 157 | 3.5 | 0.0 | 0.00 | 0.00 | 0.00 | 66 | 1065.0 |
| 20260502010600 | 55 | 157 | 0.0 | 0.0 | 0.00 | 0.00 | 0.00 | 66 | 1065.0 |
| 20260502010439 | 55 | 180 | 0.0 | 0.0 | 0.00 | 0.00 | 0.00 | 66 | 1065.0 |
| 20260502010317 | 55 | 180 | 0.0 | 0.0 | 0.00 | 0.00 | 0.00 | 66 | 1065.1 |
| 20260502005953 | 55 | 180 | 0.0 | 0.0 | 0.00 | 0.00 | 0.00 | 66 | 1065.1 |
| 20260502005842 | 55 | 157 | 3.5 | 0.0 | 0.00 | 0.00 | 0.00 | 66 | 1065.1 |
| 20260502005736 | 55 | 180 | 3.5 | 0.0 | 0.00 | 0.00 | 0.00 | 66 | 1065.1 |
| 20260502005623 | 55 | 180 | 3.5 | 0.0 | 0.00 | 0.00 | 0.00 | 66 | 1065.1 |
| 20260502005502 | 55 | 157 | 5.2 | 0.0 | 0.00 | 0.00 | 0.00 | 66 | 1065.1 |
| 20260502005349 | 55 | 180 | 1.7 | 0.0 | 0.00 | 0.00 | 0.00 | 66 | 1065.2 |
| 20260502005228 | 55 | 180 | 5.2 | 0.0 | 0.00 | 0.00 | 0.00 | 65 | 1065.1 |
| 20260502005114 | 55 | 180 | 4.3 | 0.0 | 0.00 | 0.00 | 0.00 | 65 | 1065.1 |
| 20260502005001 | 55 | 180 | 6.1 | 0.0 | 0.00 | 0.00 | 0.00 | 65 | 1065.1 |
| 20260502004832 | 55 | 157 | 3.5 | 0.0 | 0.00 | 0.00 | 0.00 | 65 | 1065.2 |
| 20260502004719 | 55 | 180 | 1.7 | 0.0 | 0.00 | 0.00 | 0.00 | 65 | 1065.2 |
| 20260502004614 | 55 | 157 | 4.3 | 0.0 | 0.00 | 0.00 | 0.00 | 65 | 1065.1 |
| 20260502004453 | 55 | 157 | 4.3 | 0.0 | 0.00 | 0.00 | 0.00 | 65 | 1065.1 |
| 20260502004339 | 55 | 180 | 4.3 | 0.0 | 0.00 | 0.00 | 0.00 | 65 | 1065.2 |
| 20260502004227 | 55 | 180 | 5.2 | 0.0 | 0.00 | 0.00 | 0.00 | 65 | 1065.2 |
| 20260502004108 | 55 | 180 | 6.1 | 0.0 | 0.00 | 0.00 | 0.00 | 65 | 1065.2 |
| 20260502003953 | 55 | 180 | 5.2 | 0.0 | 0.00 | 0.00 | 0.00 | 65 | 1065.2 |
| 20260502003825 | 55 | 157 | 0.0 | 0.0 | 0.00 | 0.00 | 0.00 | 65 | 1065.2 |
| 20260502003711 | 55 | 157 | 5.2 | 0.0 | 0.00 | 0.00 | 0.00 | 65 | 1065.2 |
| 20260502003559 | 55 | 135 | 6.1 | 0.0 | 0.00 | 0.00 | 0.00 | 65 | 1065.2 |
| 20260502003445 | 55 | 135 | 4.3 | 0.0 | 0.00 | 0.00 | 0.00 | 65 | 1065.2 |
| 20260502003323 | 55 | 157 | 3.5 | 0.0 | 0.00 | 0.00 | 0.00 | 65 | 1065.2 |
| 20260502003213 | 56 | 157 | 5.2 | 0.0 | 0.00 | 0.00 | 0.00 | 65 | 1065.2 |
| 20260502003106 | 56 | 180 | 4.3 | 0.0 | 0.00 | 0.00 | 0.00 | 65 | 1065.2 |
| 20260502003000 | 56 | 157 | 4.3 | 0.0 | 0.00 | 0.00 | 0.00 | 65 | 1065.3 |
| 20260502002841 | 56 | 180 | 6.1 | 0.0 | 0.00 | 0.00 | 0.00 | 65 | 1065.3 |
| 20260502002723 | 56 | 157 | 3.5 | 0.0 | 0.00 | 0.00 | 0.00 | 65 | 1065.2 |
| 20260502002610 | 56 | 157 | 4.3 | 0.0 | 0.00 | 0.00 | 0.00 | 65 | 1065.3 |
| 20260502002505 | 56 | 180 | 4.3 | 0.0 | 0.00 | 0.00 | 0.00 | 65 | 1065.3 |
| 20260502002359 | 56 | 157 | 5.2 | 0.0 | 0.00 | 0.00 | 0.00 | 65 | 1065.3 |
| 20260502002246 | 56 | 157 | 5.2 | 0.0 | 0.00 | 0.00 | 0.00 | 65 | 1065.3 |
| 20260502002125 | 56 | 180 | 5.2 | 0.0 | 0.00 | 0.00 | 0.00 | 65 | 1065.3 |
| 20260502002011 | 56 | 180 | 4.3 | 0.0 | 0.00 | 0.00 | 0.00 | 65 | 1065.3 |
| 20260502001850 | 56 | 180 | 5.2 | 0.0 | 0.00 | 0.00 | 0.00 | 64 | 1065.4 |